Time,TemperatureF,DewpointF,PressureIn,WindDirection,WindDirectionDegrees,WindSpeedMPH,WindSpeedGustMPH,Humidity,HourlyPrecipIn,Conditions,Clouds,dailyrainin,SoftwareType,DateUTC
2013-01-07 00:00:00,41.2,38.7,30.15,North,10,4.5,4.5,91,0.00,,SKC,0.16,VWS V13.01,2013-01-07 06:00:00,
2013-01-07 00:01:00,41.2,38.7,30.15,North,10,2.7,3.1,91,0.00,,SKC,0.00,VWS V13.01,2013-01-07 06:01:00,
2013-01-07 00:02:00,41.2,38.7,30.15,North,10,2.2,2.7,91,0.00,,SKC,0.00,VWS V13.01,2013-01-07 06:02:00,
2013-01-07 00:03:00,41.2,38.7,30.15,North,10,0.0,2.2,91,0.00,,SKC,0.00,VWS V13.01,2013-01-07 06:03:00,
2013-01-07 00:04:00,41.0,38.6,30.15,North,10,0.0,0.0,91,0.00,,SKC,0.00,VWS V13.01,2013-01-07 06:04:00,
2013-01-07 00:05:00,41.0,38.6,30.15,North,10,0.0,0.0,91,0.00,,SKC,0.00,VWS V13.01,2013-01-07 06:05:00,
2013-01-07 00:06:00,41.0,38.6,30.15,North,10,0.0,0.0,91,0.00,,SKC,0.00,VWS V13.01,2013-01-07 06:06:00,
2013-01-07 00:07:00,41.0,38.6,30.15,NNE,12,2.7,3.1,91,0.00,,SKC,0.00,VWS V13.01,2013-01-07 06:07:00,
2013-01-07 00:08:00,41.0,38.6,30.15,NNE,12,0.0,2.7,91,0.00,,SKC,0.00,VWS V13.01,2013-01-07 06:08:00,
2013-01-07 00:09:00,41.0,38.6,30.15,NNE,12,0.0,2.7,91,0.00,,SKC,0.00,VWS V13.01,2013-01-07 06:09:00,
2013-01-07 00:10:00,40.8,38.4,30.15,NNE,12,3.1,3.1,91,0.00,,SKC,0.00,VWS V13.01,2013-01-07 06:10:00,
2013-01-07 00:11:00,40.8,38.4,30.15,North,8,2.2,3.1,91,0.00,,SKC,0.00,VWS V13.01,2013-01-07 06:11:00,
2013-01-07 00:12:00,40.8,38.1,30.15,North,8,0.0,2.2,90,0.00,,SKC,0.00,VWS V13.01,2013-01-07 06:12:00,
2013-01-07 00:13:00,40.8,38.1,30.15,North,8,0.0,0.0,90,0.00,,SKC,0.00,VWS V13.01,2013-01-07 06:13:00,
2013-01-07 00:14:00,40.8,38.1,30.15,ENE,67,3.6,3.6,90,0.00,,SKC,0.00,VWS V13.01,2013-01-07 06:14:00,
2013-01-07 00:15:00,40.8,38.4,30.15,NE,48,2.2,3.6,91,0.00,,SKC,0.00,VWS V13.01,2013-01-07 06:15:00,
2013-01-07 00:16:00,40.8,38.4,30.15,ENE,62,0.0,2.7,91,0.00,,SKC,0.00,VWS V13.01,2013-01-07 06:16:00,
2013-01-07 00:17:00,40.6,38.2,30.15,NNE,32,0.0,0.0,91,0.00,,SKC,0.00,VWS V13.01,2013-01-07 06:17:00,
2013-01-07 00:18:00,40.8,38.4,30.15,NNE,12,3.6,3.6,91,0.00,,SKC,0.00,VWS V13.01,2013-01-07 06:18:00,
2013-01-07 00:19:00,40.6,38.5,30.15,NE,35,2.2,4.9,92,0.00,,SKC,0.00,VWS V13.01,2013-01-07 06:19:00,
2013-01-07 00:20:00,40.6,38.5,30.15,NNW,340,3.1,3.1,92,0.00,,SKC,0.00,VWS V13.01,2013-01-07 06:20:00,
2013-01-07 00:21:00,40.6,38.5,30.15,ENE,63,0.0,0.0,92,0.00,,SKC,0.00,VWS V13.01,2013-01-07 06:21:00,
2013-01-07 00:22:00,40.6,38.5,30.15,NE,36,2.7,3.6,92,0.00,,SKC,0.00,VWS V13.01,2013-01-07 06:22:00,
2013-01-07 00:23:00,40.6,38.5,30.15,NE,36,0.0,2.7,92,0.00,,SKC,0.00,VWS V13.01,2013-01-07 06:23:00,
2013-01-07 00:24:00,40.6,38.5,30.15,NE,55,2.2,2.2,92,0.00,,SKC,0.00,VWS V13.01,2013-01-07 06:24:00,
2013-01-07 00:25:00,40.6,38.5,30.15,NE,55,0.0,2.2,92,0.00,,SKC,0.00,VWS V13.01,2013-01-07 06:25:00,
2013-01-07 00:26:00,40.6,38.5,30.15,ENE,62,3.1,3.1,92,0.00,,SKC,0.00,VWS V13.01,2013-01-07 06:26:00,
2013-01-07 00:27:00,40.6,38.5,30.15,ENE,62,0.0,3.1,92,0.00,,SKC,0.00,VWS V13.01,2013-01-07 06:27:00,
2013-01-07 00:28:00,40.6,38.8,30.15,NNE,18,0.0,2.7,93,0.00,,SKC,0.00,VWS V13.01,2013-01-07 06:28:00,
2013-01-07 00:29:00,40.6,38.8,30.15,NNE,28,0.0,0.0,93,0.00,,SKC,0.00,VWS V13.01,2013-01-07 06:29:00,
2013-01-07 00:30:00,40.6,39.0,30.15,NNE,12,0.0,0.0,94,0.00,,SKC,0.00,VWS V13.01,2013-01-07 06:30:00,
2013-01-07 00:31:00,40.6,38.8,30.15,NNE,32,0.0,2.7,93,0.00,,SKC,0.00,VWS V13.01,2013-01-07 06:31:00,
2013-01-07 00:32:00,40.8,38.9,30.15,NNE,32,2.2,2.2,93,0.00,,SKC,0.00,VWS V13.01,2013-01-07 06:32:00,
2013-01-07 00:33:00,40.8,38.9,30.15,ENE,61,2.7,3.1,93,0.00,,SKC,0.00,VWS V13.01,2013-01-07 06:33:00,
2013-01-07 00:34:00,40.8,38.9,30.15,North,4,0.0,2.7,93,0.00,,SKC,0.00,VWS V13.01,2013-01-07 06:34:00,
2013-01-07 00:35:00,40.8,38.9,30.15,NE,44,0.0,0.0,93,0.00,,SKC,0.00,VWS V13.01,2013-01-07 06:35:00,
2013-01-07 00:36:00,40.8,38.9,30.15,NNE,28,0.0,2.7,93,0.00,,SKC,0.00,VWS V13.01,2013-01-07 06:36:00,
2013-01-07 00:37:00,40.8,38.9,30.15,NE,35,0.0,3.6,93,0.00,,SKC,0.00,VWS V13.01,2013-01-07 06:37:00,
2013-01-07 00:38:00,40.8,38.9,30.15,NNE,32,0.0,0.0,93,0.00,,SKC,0.00,VWS V13.01,2013-01-07 06:38:00,
2013-01-07 00:39:00,40.6,38.8,30.15,ENE,58,3.6,3.6,93,0.00,,SKC,0.00,VWS V13.01,2013-01-07 06:39:00,
2013-01-07 00:40:00,40.6,38.8,30.15,NE,41,0.0,3.6,93,0.00,,SKC,0.00,VWS V13.01,2013-01-07 06:40:00,
2013-01-07 00:41:00,40.6,38.5,30.15,NNE,16,0.0,0.0,92,0.00,,SKC,0.00,VWS V13.01,2013-01-07 06:41:00,
2013-01-07 00:42:00,40.6,38.8,30.15,NNE,32,0.0,3.6,93,0.00,,SKC,0.00,VWS V13.01,2013-01-07 06:42:00,
2013-01-07 00:43:00,40.6,38.8,30.15,NNE,32,0.0,0.0,93,0.00,,SKC,0.00,VWS V13.01,2013-01-07 06:43:00,
2013-01-07 00:44:00,40.6,38.8,30.15,NNE,32,0.0,0.0,93,0.00,,SKC,0.00,VWS V13.01,2013-01-07 06:44:00,
2013-01-07 00:45:00,40.6,38.8,30.15,NNE,13,3.6,3.6,93,0.00,,SKC,0.00,VWS V13.01,2013-01-07 06:45:00,
2013-01-07 00:46:00,40.6,38.8,30.15,NNE,13,0.0,2.2,93,0.00,,SKC,0.00,VWS V13.01,2013-01-07 06:46:00,
2013-01-07 00:47:00,40.6,38.5,30.15,NE,37,2.7,2.7,92,0.00,,SKC,0.00,VWS V13.01,2013-01-07 06:47:00,
2013-01-07 00:48:00,40.6,38.8,30.15,NE,37,0.0,2.7,93,0.00,,SKC,0.00,VWS V13.01,2013-01-07 06:48:00,
2013-01-07 00:49:00,40.6,38.8,30.15,NE,37,0.0,0.0,93,0.00,,SKC,0.00,VWS V13.01,2013-01-07 06:49:00,
2013-01-07 00:50:00,40.6,38.8,30.15,NE,37,0.0,0.0,93,0.00,,SKC,0.00,VWS V13.01,2013-01-07 06:50:00,
2013-01-07 00:51:00,40.6,38.8,30.15,NE,37,0.0,0.0,93,0.00,,SKC,0.00,VWS V13.01,2013-01-07 06:51:00,
2013-01-07 00:52:00,40.6,38.8,30.15,NE,37,0.0,0.0,93,0.00,,SKC,0.00,VWS V13.01,2013-01-07 06:52:00,
2013-01-07 00:53:00,40.6,38.8,30.15,NE,37,0.0,0.0,93,0.00,,SKC,0.00,VWS V13.01,2013-01-07 06:53:00,
2013-01-07 00:54:00,40.6,38.8,30.15,NE,37,2.7,2.7,93,0.00,,SKC,0.00,VWS V13.01,2013-01-07 06:54:00,
2013-01-07 00:55:00,40.4,38.3,30.15,NE,37,2.2,2.7,92,0.00,,SKC,0.00,VWS V13.01,2013-01-07 06:55:00,
2013-01-07 00:56:00,40.4,38.3,30.15,NE,37,0.0,0.0,92,0.00,,SKC,0.00,VWS V13.01,2013-01-07 06:56:00,
2013-01-07 00:57:00,40.3,37.8,30.15,NE,37,0.0,0.0,91,0.00,,SKC,0.00,VWS V13.01,2013-01-07 06:57:00,
2013-01-07 00:58:00,40.3,37.8,30.15,NE,37,0.0,2.2,91,0.00,,SKC,0.00,VWS V13.01,2013-01-07 06:58:00,
2013-01-07 00:59:00,40.3,37.6,30.15,NNW,337,2.2,3.6,90,0.00,,SKC,0.00,VWS V13.01,2013-01-07 06:59:00,
2013-01-07 01:00:00,40.3,37.6,30.15,NNW,337,0.0,2.2,90,0.00,,SKC,0.00,VWS V13.01,2013-01-07 07:00:00,
2013-01-07 01:01:00,40.1,37.4,30.15,NE,35,2.2,2.7,90,0.00,,SKC,0.00,VWS V13.01,2013-01-07 07:01:00,
2013-01-07 01:02:00,40.1,37.7,30.15,NNE,32,0.0,2.2,91,0.00,,SKC,0.00,VWS V13.01,2013-01-07 07:02:00,
2013-01-07 01:03:00,40.1,37.4,30.15,NNE,32,0.0,0.0,90,0.00,,SKC,0.00,VWS V13.01,2013-01-07 07:03:00,
2013-01-07 01:04:00,40.1,37.4,30.15,NNE,32,0.0,0.0,90,0.00,,SKC,0.00,VWS V13.01,2013-01-07 07:04:00,
2013-01-07 01:05:00,40.1,37.4,30.15,NNE,32,0.0,0.0,90,0.00,,SKC,0.00,VWS V13.01,2013-01-07 07:05:00,
2013-01-07 01:06:00,39.9,36.9,30.15,NNE,32,0.0,2.7,89,0.00,,SKC,0.00,VWS V13.01,2013-01-07 07:06:00,
2013-01-07 01:07:00,39.9,36.9,30.15,NNE,32,0.0,0.0,89,0.00,,SKC,0.00,VWS V13.01,2013-01-07 07:07:00,
2013-01-07 01:08:00,39.9,37.2,30.15,NNE,32,0.0,0.0,90,0.00,,SKC,0.00,VWS V13.01,2013-01-07 07:08:00,
2013-01-07 01:09:00,39.9,37.2,30.15,NNE,28,2.2,2.2,90,0.00,,SKC,0.00,VWS V13.01,2013-01-07 07:09:00,
2013-01-07 01:10:00,39.9,37.2,30.15,NNE,28,0.0,2.2,90,0.00,,SKC,0.00,VWS V13.01,2013-01-07 07:10:00,
2013-01-07 01:11:00,39.9,37.5,30.15,NNE,19,0.0,3.6,91,0.00,,SKC,0.00,VWS V13.01,2013-01-07 07:11:00,
2013-01-07 01:12:00,39.9,37.8,30.15,NNE,24,3.1,3.1,92,0.00,,SKC,0.00,VWS V13.01,2013-01-07 07:12:00,
2013-01-07 01:13:00,39.9,37.8,30.15,NNE,28,2.7,4.0,92,0.00,,SKC,0.00,VWS V13.01,2013-01-07 07:13:00,
2013-01-07 01:14:00,39.9,38.0,30.15,NE,49,3.1,3.1,93,0.00,,SKC,0.00,VWS V13.01,2013-01-07 07:14:00,
2013-01-07 01:15:00,40.1,38.2,30.15,NE,49,2.7,3.1,93,0.00,,SKC,0.00,VWS V13.01,2013-01-07 07:15:00,
2013-01-07 01:16:00,40.1,38.2,30.15,NE,35,2.7,3.1,93,0.00,,SKC,0.00,VWS V13.01,2013-01-07 07:16:00,
2013-01-07 01:17:00,39.9,37.8,30.15,NNE,23,3.1,3.6,92,0.00,,SKC,0.00,VWS V13.01,2013-01-07 07:17:00,
2013-01-07 01:18:00,39.9,37.5,30.15,NNE,23,2.7,3.1,91,0.00,,SKC,0.00,VWS V13.01,2013-01-07 07:18:00,
2013-01-07 01:19:00,39.9,37.5,30.15,NE,44,0.0,4.0,91,0.00,,SKC,0.00,VWS V13.01,2013-01-07 07:19:00,
2013-01-07 01:20:00,39.9,37.5,30.15,NE,44,0.0,0.0,91,0.00,,SKC,0.00,VWS V13.01,2013-01-07 07:20:00,
2013-01-07 01:21:00,39.7,37.0,30.15,NNE,21,3.1,4.0,90,0.00,,SKC,0.00,VWS V13.01,2013-01-07 07:21:00,
2013-01-07 01:22:00,39.7,37.0,30.15,NNE,21,3.1,3.1,90,0.00,,SKC,0.00,VWS V13.01,2013-01-07 07:22:00,
2013-01-07 01:23:00,39.7,36.8,30.15,NE,42,3.1,5.8,89,0.00,,SKC,0.00,VWS V13.01,2013-01-07 07:23:00,
2013-01-07 01:24:00,39.7,37.0,30.15,NE,43,2.2,3.1,90,0.00,,SKC,0.00,VWS V13.01,2013-01-07 07:24:00,
2013-01-07 01:25:00,39.7,37.0,30.15,NE,43,4.9,4.9,90,0.00,,SKC,0.00,VWS V13.01,2013-01-07 07:25:00,
2013-01-07 01:26:00,39.7,37.9,30.15,NE,48,4.9,4.9,93,0.00,,SKC,0.00,VWS V13.01,2013-01-07 07:26:00,
2013-01-07 01:27:00,39.7,38.1,30.15,NNE,32,2.2,4.9,94,0.00,,SKC,0.00,VWS V13.01,2013-01-07 07:27:00,
2013-01-07 01:28:00,39.7,38.1,30.15,NNE,32,0.0,2.2,94,0.00,,SKC,0.00,VWS V13.01,2013-01-07 07:28:00,
2013-01-07 01:29:00,39.7,38.4,30.15,NE,38,0.0,3.6,95,0.00,,SKC,0.00,VWS V13.01,2013-01-07 07:29:00,
2013-01-07 01:30:00,39.7,38.4,30.15,NE,43,2.7,2.7,95,0.00,,SKC,0.00,VWS V13.01,2013-01-07 07:30:00,
2013-01-07 01:31:00,39.9,38.6,30.15,NE,49,4.0,4.9,95,0.00,,SKC,0.00,VWS V13.01,2013-01-07 07:31:00,
2013-01-07 01:32:00,40.1,39.3,30.15,ENE,73,0.0,4.0,97,0.00,,SKC,0.00,VWS V13.01,2013-01-07 07:32:00,
2013-01-07 01:33:00,40.1,39.3,30.15,NNE,28,2.2,3.6,97,0.00,,SKC,0.00,VWS V13.01,2013-01-07 07:33:00,
2013-01-07 01:34:00,40.1,39.0,30.15,NNE,28,3.1,4.5,96,0.00,,SKC,0.00,VWS V13.01,2013-01-07 07:34:00,
2013-01-07 01:35:00,40.1,39.0,30.15,East,79,3.1,3.1,96,0.00,,SKC,0.00,VWS V13.01,2013-01-07 07:35:00,
2013-01-07 01:36:00,40.1,39.0,30.15,NNE,28,2.7,3.1,96,0.00,,SKC,0.00,VWS V13.01,2013-01-07 07:36:00,
2013-01-07 01:37:00,40.1,39.0,30.15,NE,56,0.0,3.1,96,0.00,,SKC,0.00,VWS V13.01,2013-01-07 07:37:00,
2013-01-07 01:38:00,40.3,39.2,30.15,East,86,3.1,4.0,96,0.00,,SKC,0.00,VWS V13.01,2013-01-07 07:38:00,
2013-01-07 01:39:00,40.3,38.9,30.15,ENE,73,2.2,3.1,95,0.00,,SKC,0.00,VWS V13.01,2013-01-07 07:39:00,
2013-01-07 01:40:00,40.3,39.0,30.15,ENE,73,2.2,2.2,95,0.00,,SKC,0.00,VWS V13.01,2013-01-07 07:40:00,
2013-01-07 01:41:00,40.3,38.7,30.15,NE,54,2.2,5.4,94,0.00,,SKC,0.00,VWS V13.01,2013-01-07 07:41:00,
2013-01-07 01:42:00,40.3,38.4,30.15,North,352,2.7,4.9,93,0.00,,SKC,0.00,VWS V13.01,2013-01-07 07:42:00,
2013-01-07 01:43:00,40.3,38.4,30.15,East,85,0.0,4.0,93,0.00,,SKC,0.00,VWS V13.01,2013-01-07 07:43:00,
2013-01-07 01:44:00,40.3,38.4,30.15,NNE,28,2.7,4.0,93,0.00,,SKC,0.00,VWS V13.01,2013-01-07 07:44:00,
2013-01-07 01:45:00,40.4,38.3,30.15,NNE,28,0.0,2.7,92,0.00,,SKC,0.00,VWS V13.01,2013-01-07 07:45:00,
2013-01-07 01:46:00,40.4,38.0,30.15,East,91,0.0,4.0,91,0.00,,SKC,0.00,VWS V13.01,2013-01-07 07:46:00,
2013-01-07 01:47:00,40.4,38.0,30.15,NE,38,0.0,2.2,91,0.00,,SKC,0.00,VWS V13.01,2013-01-07 07:47:00,
2013-01-07 01:48:00,40.4,38.0,30.15,NNE,28,2.7,2.7,91,0.00,,SKC,0.00,VWS V13.01,2013-01-07 07:48:00,
2013-01-07 01:49:00,40.4,37.7,30.15,East,99,3.1,3.1,90,0.00,,SKC,0.00,VWS V13.01,2013-01-07 07:49:00,
2013-01-07 01:50:00,40.3,37.3,30.15,NE,50,2.7,3.1,89,0.00,,SKC,0.00,VWS V13.01,2013-01-07 07:50:00,
2013-01-07 01:51:00,40.3,37.0,30.15,ENE,65,0.0,3.1,88,0.00,,SKC,0.00,VWS V13.01,2013-01-07 07:51:00,
2013-01-07 01:52:00,40.3,37.0,30.15,ENE,62,0.0,0.0,88,0.00,,SKC,0.00,VWS V13.01,2013-01-07 07:52:00,
2013-01-07 01:53:00,40.3,37.3,30.15,ENE,62,0.0,0.0,89,0.00,,SKC,0.00,VWS V13.01,2013-01-07 07:53:00,
2013-01-07 01:54:00,40.3,37.3,30.15,NE,54,0.0,3.1,89,0.00,,SKC,0.00,VWS V13.01,2013-01-07 07:54:00,
2013-01-07 01:55:00,40.3,37.3,30.15,NE,47,3.6,3.6,89,0.00,,SKC,0.00,VWS V13.01,2013-01-07 07:55:00,
2013-01-07 01:56:00,40.3,37.6,30.15,NE,54,2.2,2.7,90,0.00,,SKC,0.00,VWS V13.01,2013-01-07 07:56:00,
2013-01-07 01:57:00,40.3,37.3,30.15,NE,56,3.6,4.0,89,0.00,,SKC,0.00,VWS V13.01,2013-01-07 07:57:00,
2013-01-07 01:58:00,40.3,37.3,30.15,NE,42,0.0,3.6,89,0.00,,SKC,0.00,VWS V13.01,2013-01-07 07:58:00,
2013-01-07 01:59:00,40.3,37.3,30.15,NE,42,0.0,0.0,89,0.00,,SKC,0.00,VWS V13.01,2013-01-07 07:59:00,
2013-01-07 02:00:00,40.3,37.3,30.15,NE,42,0.0,0.0,89,0.00,,SKC,0.00,VWS V13.01,2013-01-07 08:00:00,
2013-01-07 02:01:00,40.1,36.8,30.15,East,80,0.0,4.0,88,0.00,,SKC,0.00,VWS V13.01,2013-01-07 08:01:00,
2013-01-07 02:02:00,40.1,36.8,30.15,ENE,63,0.0,0.0,88,0.00,,SKC,0.00,VWS V13.01,2013-01-07 08:02:00,
2013-01-07 02:03:00,40.1,36.8,30.15,East,80,0.0,0.0,88,0.00,,SKC,0.00,VWS V13.01,2013-01-07 08:03:00,
2013-01-07 02:04:00,39.9,36.3,30.15,NNE,32,0.0,0.0,87,0.00,,SKC,0.00,VWS V13.01,2013-01-07 08:04:00,
2013-01-07 02:05:00,39.9,36.3,30.15,NNE,32,0.0,0.0,87,0.00,,SKC,0.00,VWS V13.01,2013-01-07 08:05:00,
2013-01-07 02:06:00,39.7,35.6,30.15,NE,43,3.1,3.1,85,0.00,,SKC,0.00,VWS V13.01,2013-01-07 08:06:00,
2013-01-07 02:07:00,39.7,35.6,30.15,NNE,28,2.7,3.1,85,0.00,,SKC,0.00,VWS V13.01,2013-01-07 08:07:00,
2013-01-07 02:08:00,39.7,35.9,30.15,NNE,28,0.0,2.7,86,0.00,,SKC,0.00,VWS V13.01,2013-01-07 08:08:00,
2013-01-07 02:09:00,39.7,36.2,30.15,NNE,28,0.0,0.0,87,0.00,,SKC,0.00,VWS V13.01,2013-01-07 08:09:00,
2013-01-07 02:10:00,39.7,36.2,30.15,NNE,28,0.0,0.0,87,0.00,,SKC,0.00,VWS V13.01,2013-01-07 08:10:00,
2013-01-07 02:11:00,39.5,36.0,30.12,NNE,28,0.0,0.0,87,0.00,,SKC,0.00,VWS V13.01,2013-01-07 08:11:00,
2013-01-07 02:12:00,39.5,36.0,30.12,NNE,28,0.0,0.0,87,0.00,,SKC,0.00,VWS V13.01,2013-01-07 08:12:00,
2013-01-07 02:13:00,39.5,36.3,30.12,NNE,28,0.0,0.0,88,0.00,,SKC,0.00,VWS V13.01,2013-01-07 08:13:00,
2013-01-07 02:14:00,39.5,36.3,30.12,NNE,28,0.0,2.2,88,0.00,,SKC,0.00,VWS V13.01,2013-01-07 08:14:00,
2013-01-07 02:15:00,39.5,36.3,30.12,NNE,28,0.0,0.0,88,0.00,,SKC,0.00,VWS V13.01,2013-01-07 08:15:00,
2013-01-07 02:16:00,39.5,36.6,30.12,NE,42,0.0,2.7,89,0.00,,SKC,0.00,VWS V13.01,2013-01-07 08:16:00,
2013-01-07 02:17:00,39.5,36.6,30.12,NNE,28,0.0,0.0,89,0.00,,SKC,0.00,VWS V13.01,2013-01-07 08:17:00,
2013-01-07 02:18:00,39.5,36.6,30.12,NNE,28,0.0,0.0,89,0.00,,SKC,0.00,VWS V13.01,2013-01-07 08:18:00,
2013-01-07 02:19:00,39.5,36.6,30.12,NNE,28,0.0,0.0,89,0.00,,SKC,0.00,VWS V13.01,2013-01-07 08:19:00,
2013-01-07 02:20:00,39.5,36.6,30.12,NNE,28,0.0,0.0,89,0.00,,SKC,0.00,VWS V13.01,2013-01-07 08:20:00,
2013-01-07 02:21:00,39.4,36.4,30.12,ENE,62,0.0,0.0,89,0.00,,SKC,0.00,VWS V13.01,2013-01-07 08:21:00,
2013-01-07 02:22:00,39.4,36.4,30.12,ENE,62,0.0,0.0,89,0.00,,SKC,0.00,VWS V13.01,2013-01-07 08:22:00,
2013-01-07 02:23:00,39.4,36.4,30.12,ENE,62,0.0,0.0,89,0.00,,SKC,0.00,VWS V13.01,2013-01-07 08:23:00,
2013-01-07 02:24:00,39.2,36.2,30.12,ENE,62,0.0,0.0,89,0.00,,SKC,0.00,VWS V13.01,2013-01-07 08:24:00,
2013-01-07 02:25:00,39.2,36.2,30.12,ENE,62,0.0,0.0,89,0.00,,SKC,0.00,VWS V13.01,2013-01-07 08:25:00,
2013-01-07 02:26:00,39.2,35.9,30.15,ENE,62,0.0,0.0,88,0.00,,SKC,0.00,VWS V13.01,2013-01-07 08:26:00,
2013-01-07 02:27:00,39.0,35.8,30.15,NE,50,0.0,0.0,88,0.00,,SKC,0.00,VWS V13.01,2013-01-07 08:27:00,
2013-01-07 02:28:00,39.0,35.8,30.15,NE,50,0.0,0.0,88,0.00,,SKC,0.00,VWS V13.01,2013-01-07 08:28:00,
2013-01-07 02:29:00,39.0,35.8,30.15,NE,50,0.0,0.0,88,0.00,,SKC,0.00,VWS V13.01,2013-01-07 08:29:00,
2013-01-07 02:30:00,39.0,35.8,30.15,NE,50,0.0,0.0,88,0.00,,SKC,0.00,VWS V13.01,2013-01-07 08:30:00,
2013-01-07 02:31:00,38.8,35.6,30.15,ENE,77,0.0,0.0,88,0.00,,SKC,0.00,VWS V13.01,2013-01-07 08:31:00,
2013-01-07 02:32:00,38.8,35.6,30.15,ENE,77,0.0,0.0,88,0.00,,SKC,0.00,VWS V13.01,2013-01-07 08:32:00,
2013-01-07 02:33:00,38.8,35.6,30.15,NE,35,0.0,0.0,88,0.00,,SKC,0.00,VWS V13.01,2013-01-07 08:33:00,
2013-01-07 02:34:00,38.6,35.4,30.15,NE,35,0.0,0.0,88,0.00,,SKC,0.00,VWS V13.01,2013-01-07 08:34:00,
2013-01-07 02:35:00,38.6,35.4,30.15,NE,35,0.0,0.0,88,0.00,,SKC,0.00,VWS V13.01,2013-01-07 08:35:00,
2013-01-07 02:36:00,38.6,35.4,30.15,NE,35,0.0,0.0,88,0.00,,SKC,0.00,VWS V13.01,2013-01-07 08:36:00,
2013-01-07 02:37:00,38.6,35.1,30.15,NE,51,0.0,0.0,87,0.00,,SKC,0.00,VWS V13.01,2013-01-07 08:37:00,
2013-01-07 02:38:00,38.5,34.9,30.15,NE,47,0.0,0.0,87,0.00,,SKC,0.00,VWS V13.01,2013-01-07 08:38:00,
2013-01-07 02:39:00,38.5,34.9,30.15,NE,47,0.0,0.0,87,0.00,,SKC,0.00,VWS V13.01,2013-01-07 08:39:00,
2013-01-07 02:40:00,38.5,34.9,30.15,NE,47,0.0,0.0,87,0.00,,SKC,0.00,VWS V13.01,2013-01-07 08:40:00,
2013-01-07 02:41:00,38.3,34.8,30.15,ENE,63,2.7,2.7,87,0.00,,SKC,0.00,VWS V13.01,2013-01-07 08:41:00,
2013-01-07 02:42:00,38.3,34.5,30.15,ENE,72,0.0,3.1,86,0.00,,SKC,0.00,VWS V13.01,2013-01-07 08:42:00,
2013-01-07 02:43:00,38.3,34.5,30.15,ENE,72,0.0,0.0,86,0.00,,SKC,0.00,VWS V13.01,2013-01-07 08:43:00,
2013-01-07 02:44:00,38.3,34.5,30.15,ENE,72,0.0,0.0,86,0.00,,SKC,0.00,VWS V13.01,2013-01-07 08:44:00,
2013-01-07 02:45:00,38.1,34.3,30.15,ENE,72,0.0,0.0,86,0.00,,SKC,0.00,VWS V13.01,2013-01-07 08:45:00,
2013-01-07 02:46:00,37.9,34.1,30.15,NE,44,0.0,0.0,86,0.00,,SKC,0.00,VWS V13.01,2013-01-07 08:46:00,
2013-01-07 02:47:00,37.9,34.1,30.15,NE,44,0.0,0.0,86,0.00,,SKC,0.00,VWS V13.01,2013-01-07 08:47:00,
2013-01-07 02:48:00,37.9,34.1,30.15,East,82,0.0,0.0,86,0.00,,SKC,0.00,VWS V13.01,2013-01-07 08:48:00,
2013-01-07 02:49:00,37.7,33.9,30.15,NE,35,0.0,0.0,86,0.00,,SKC,0.00,VWS V13.01,2013-01-07 08:49:00,
2013-01-07 02:50:00,37.7,33.9,30.15,NE,35,0.0,0.0,86,0.00,,SKC,0.00,VWS V13.01,2013-01-07 08:50:00,
2013-01-07 02:51:00,37.7,34.2,30.15,NE,35,0.0,0.0,87,0.00,,SKC,0.00,VWS V13.01,2013-01-07 08:51:00,
2013-01-07 02:52:00,37.7,34.2,30.15,ENE,60,2.7,2.7,87,0.00,,SKC,0.00,VWS V13.01,2013-01-07 08:52:00,
2013-01-07 02:53:00,37.7,34.2,30.15,NNE,28,2.2,3.1,87,0.00,,SKC,0.00,VWS V13.01,2013-01-07 08:53:00,
2013-01-07 02:54:00,37.7,34.2,30.15,NNE,28,0.0,2.2,87,0.00,,SKC,0.00,VWS V13.01,2013-01-07 08:54:00,
2013-01-07 02:55:00,37.6,34.0,30.15,NNE,28,0.0,0.0,87,0.00,,SKC,0.00,VWS V13.01,2013-01-07 08:55:00,
2013-01-07 02:56:00,37.6,34.0,30.15,NNE,28,0.0,0.0,87,0.00,,SKC,0.00,VWS V13.01,2013-01-07 08:56:00,
2013-01-07 02:57:00,37.6,33.8,30.15,NNE,28,0.0,0.0,86,0.00,,SKC,0.00,VWS V13.01,2013-01-07 08:57:00,
2013-01-07 02:58:00,37.6,33.8,30.15,NNE,28,0.0,0.0,86,0.00,,SKC,0.00,VWS V13.01,2013-01-07 08:58:00,
2013-01-07 02:59:00,37.6,33.8,30.15,NNE,28,0.0,0.0,86,0.00,,SKC,0.00,VWS V13.01,2013-01-07 08:59:00,
2013-01-07 03:00:00,37.6,33.8,30.15,NNE,28,0.0,0.0,86,0.00,,SKC,0.00,VWS V13.01,2013-01-07 09:00:00,
2013-01-07 03:01:00,37.4,33.6,30.15,NNE,28,0.0,0.0,86,0.00,,SKC,0.00,VWS V13.01,2013-01-07 09:01:00,
2013-01-07 03:02:00,37.4,33.9,30.15,NNE,28,0.0,0.0,87,0.00,,SKC,0.00,VWS V13.01,2013-01-07 09:02:00,
2013-01-07 03:03:00,37.4,33.9,30.15,NNE,28,0.0,0.0,87,0.00,,SKC,0.00,VWS V13.01,2013-01-07 09:03:00,
2013-01-07 03:04:00,37.4,33.9,30.15,NNE,28,0.0,0.0,87,0.00,,SKC,0.00,VWS V13.01,2013-01-07 09:04:00,
2013-01-07 03:05:00,37.4,33.9,30.15,NNE,28,0.0,0.0,87,0.00,,SKC,0.00,VWS V13.01,2013-01-07 09:05:00,
2013-01-07 03:06:00,37.4,33.9,30.15,NNE,28,0.0,0.0,87,0.00,,SKC,0.00,VWS V13.01,2013-01-07 09:06:00,
2013-01-07 03:07:00,37.4,33.9,30.15,NNE,28,0.0,0.0,87,0.00,,SKC,0.00,VWS V13.01,2013-01-07 09:07:00,
2013-01-07 03:08:00,37.4,33.9,30.15,NNE,28,0.0,0.0,87,0.00,,SKC,0.00,VWS V13.01,2013-01-07 09:08:00,
2013-01-07 03:09:00,37.4,33.9,30.15,NE,52,0.0,3.1,87,0.00,,SKC,0.00,VWS V13.01,2013-01-07 09:09:00,
2013-01-07 03:10:00,37.4,33.9,30.15,NE,52,0.0,0.0,87,0.00,,SKC,0.00,VWS V13.01,2013-01-07 09:10:00,
2013-01-07 03:11:00,37.4,33.9,30.15,NE,52,0.0,0.0,87,0.00,,SKC,0.00,VWS V13.01,2013-01-07 09:11:00,
2013-01-07 03:12:00,37.2,33.7,30.15,NE,52,0.0,0.0,87,0.00,,SKC,0.00,VWS V13.01,2013-01-07 09:12:00,
2013-01-07 03:13:00,37.2,33.7,30.15,NE,52,0.0,0.0,87,0.00,,SKC,0.00,VWS V13.01,2013-01-07 09:13:00,
2013-01-07 03:14:00,37.2,34.0,30.15,NE,52,0.0,0.0,88,0.00,,SKC,0.00,VWS V13.01,2013-01-07 09:14:00,
2013-01-07 03:15:00,37.2,34.0,30.15,NE,52,0.0,0.0,88,0.00,,SKC,0.00,VWS V13.01,2013-01-07 09:15:00,
2013-01-07 03:16:00,37.2,34.0,30.15,NE,52,0.0,0.0,88,0.00,,SKC,0.00,VWS V13.01,2013-01-07 09:16:00,
2013-01-07 03:17:00,37.2,34.0,30.15,NE,52,0.0,0.0,88,0.00,,SKC,0.00,VWS V13.01,2013-01-07 09:17:00,
2013-01-07 03:18:00,37.2,34.0,30.15,NE,52,0.0,0.0,88,0.00,,SKC,0.00,VWS V13.01,2013-01-07 09:18:00,
2013-01-07 03:19:00,37.2,34.0,30.15,NE,52,0.0,0.0,88,0.00,,SKC,0.00,VWS V13.01,2013-01-07 09:19:00,
2013-01-07 03:20:00,37.2,33.7,30.15,NE,52,0.0,0.0,87,0.00,,SKC,0.00,VWS V13.01,2013-01-07 09:20:00,
2013-01-07 03:21:00,37.2,33.7,30.15,NE,52,0.0,0.0,87,0.00,,SKC,0.00,VWS V13.01,2013-01-07 09:21:00,
2013-01-07 03:22:00,37.2,33.7,30.15,NE,52,0.0,0.0,87,0.00,,SKC,0.00,VWS V13.01,2013-01-07 09:22:00,
2013-01-07 03:23:00,37.2,33.4,30.15,NE,52,0.0,0.0,86,0.00,,SKC,0.00,VWS V13.01,2013-01-07 09:23:00,
2013-01-07 03:24:00,37.2,33.4,30.15,NE,52,0.0,0.0,86,0.00,,SKC,0.00,VWS V13.01,2013-01-07 09:24:00,
2013-01-07 03:25:00,37.2,33.4,30.15,NNE,16,0.0,0.0,86,0.00,,SKC,0.00,VWS V13.01,2013-01-07 09:25:00,
2013-01-07 03:26:00,37.2,33.7,30.15,NE,55,0.0,0.0,87,0.00,,SKC,0.00,VWS V13.01,2013-01-07 09:26:00,
2013-01-07 03:27:00,37.2,33.7,30.15,NE,55,0.0,0.0,87,0.00,,SKC,0.00,VWS V13.01,2013-01-07 09:27:00,
2013-01-07 03:28:00,37.2,34.0,30.15,NE,54,0.0,0.0,88,0.00,,SKC,0.00,VWS V13.01,2013-01-07 09:28:00,
2013-01-07 03:29:00,37.2,34.0,30.15,NE,52,0.0,0.0,88,0.00,,SKC,0.00,VWS V13.01,2013-01-07 09:29:00,
2013-01-07 03:30:00,37.2,34.0,30.15,NE,52,0.0,0.0,88,0.00,,SKC,0.00,VWS V13.01,2013-01-07 09:30:00,
2013-01-07 03:31:00,37.0,33.8,30.15,NE,45,0.0,2.2,88,0.00,,SKC,0.00,VWS V13.01,2013-01-07 09:31:00,
2013-01-07 03:32:00,37.0,33.5,30.15,NE,45,0.0,0.0,87,0.00,,SKC,0.00,VWS V13.01,2013-01-07 09:32:00,
2013-01-07 03:33:00,36.8,33.3,30.15,NE,45,0.0,0.0,87,0.00,,SKC,0.00,VWS V13.01,2013-01-07 09:33:00,
2013-01-07 03:34:00,36.8,33.3,30.15,NE,45,0.0,0.0,87,0.00,,SKC,0.00,VWS V13.01,2013-01-07 09:34:00,
2013-01-07 03:35:00,36.8,33.6,30.15,NE,45,0.0,0.0,88,0.00,,SKC,0.00,VWS V13.01,2013-01-07 09:35:00,
2013-01-07 03:36:00,36.8,33.6,30.15,NE,45,0.0,0.0,88,0.00,,SKC,0.00,VWS V13.01,2013-01-07 09:36:00,
2013-01-07 03:37:00,36.8,33.3,30.15,NE,48,2.2,2.2,87,0.00,,SKC,0.00,VWS V13.01,2013-01-07 09:37:00,
2013-01-07 03:38:00,36.8,33.6,30.15,NE,49,0.0,2.7,88,0.00,,SKC,0.00,VWS V13.01,2013-01-07 09:38:00,
2013-01-07 03:39:00,36.8,33.6,30.15,NE,48,0.0,0.0,88,0.00,,SKC,0.00,VWS V13.01,2013-01-07 09:39:00,
2013-01-07 03:40:00,36.8,33.6,30.15,NE,49,0.0,2.2,88,0.00,,SKC,0.00,VWS V13.01,2013-01-07 09:40:00,
2013-01-07 03:41:00,36.7,33.5,30.15,NE,35,0.0,2.7,88,0.00,,SKC,0.00,VWS V13.01,2013-01-07 09:41:00,
2013-01-07 03:42:00,36.7,33.5,30.15,NNE,28,0.0,0.0,88,0.00,,SKC,0.00,VWS V13.01,2013-01-07 09:42:00,
2013-01-07 03:43:00,36.7,33.7,30.15,NNE,28,0.0,0.0,89,0.00,,SKC,0.00,VWS V13.01,2013-01-07 09:43:00,
2013-01-07 03:44:00,36.7,33.7,30.15,NE,42,0.0,2.2,89,0.00,,SKC,0.00,VWS V13.01,2013-01-07 09:44:00,
2013-01-07 03:45:00,36.7,33.7,30.15,NE,42,0.0,0.0,89,0.00,,SKC,0.00,VWS V13.01,2013-01-07 09:45:00,
2013-01-07 03:46:00,36.7,33.5,30.15,NE,47,0.0,0.0,88,0.00,,SKC,0.00,VWS V13.01,2013-01-07 09:46:00,
2013-01-07 03:47:00,36.5,33.3,30.15,NE,47,0.0,0.0,88,0.00,,SKC,0.00,VWS V13.01,2013-01-07 09:47:00,
2013-01-07 03:48:00,36.5,33.3,30.15,ENE,76,2.2,2.2,88,0.00,,SKC,0.00,VWS V13.01,2013-01-07 09:48:00,
2013-01-07 03:49:00,36.5,33.3,30.15,ENE,76,0.0,2.2,88,0.00,,SKC,0.00,VWS V13.01,2013-01-07 09:49:00,
2013-01-07 03:50:00,36.5,33.3,30.15,NNE,32,0.0,0.0,88,0.00,,SKC,0.00,VWS V13.01,2013-01-07 09:50:00,
2013-01-07 03:51:00,36.5,33.3,30.15,North,10,3.6,3.6,88,0.00,,SKC,0.00,VWS V13.01,2013-01-07 09:51:00,
2013-01-07 03:52:00,36.5,33.3,30.15,NNE,32,0.0,3.6,88,0.00,,SKC,0.00,VWS V13.01,2013-01-07 09:52:00,
2013-01-07 03:53:00,36.5,33.3,30.15,NE,37,0.0,0.0,88,0.00,,SKC,0.00,VWS V13.01,2013-01-07 09:53:00,
2013-01-07 03:54:00,36.5,33.3,30.15,NE,37,0.0,2.2,88,0.00,,SKC,0.00,VWS V13.01,2013-01-07 09:54:00,
2013-01-07 03:55:00,36.5,33.3,30.15,NE,37,0.0,0.0,88,0.00,,SKC,0.00,VWS V13.01,2013-01-07 09:55:00,
2013-01-07 03:56:00,36.5,33.3,30.12,NE,37,0.0,0.0,88,0.00,,SKC,0.00,VWS V13.01,2013-01-07 09:56:00,
2013-01-07 03:57:00,36.3,33.1,30.12,NE,37,0.0,0.0,88,0.00,,SKC,0.00,VWS V13.01,2013-01-07 09:57:00,
2013-01-07 03:58:00,36.3,33.1,30.12,NE,35,2.7,3.1,88,0.00,,SKC,0.00,VWS V13.01,2013-01-07 09:58:00,
2013-01-07 03:59:00,36.3,33.1,30.12,NNE,28,0.0,2.7,88,0.00,,SKC,0.00,VWS V13.01,2013-01-07 09:59:00,
2013-01-07 04:00:00,36.3,33.1,30.12,NNE,28,0.0,0.0,88,0.00,,SKC,0.00,VWS V13.01,2013-01-07 10:00:00,
2013-01-07 04:01:00,36.3,33.1,30.12,NNE,32,0.0,0.0,88,0.00,,SKC,0.00,VWS V13.01,2013-01-07 10:01:00,
2013-01-07 04:02:00,36.1,32.9,30.12,NE,35,2.7,2.7,88,0.00,,SKC,0.00,VWS V13.01,2013-01-07 10:02:00,
2013-01-07 04:03:00,36.1,32.9,30.12,NE,35,0.0,3.1,88,0.00,,SKC,0.00,VWS V13.01,2013-01-07 10:03:00,
2013-01-07 04:04:00,36.1,32.9,30.12,North,3,0.0,0.0,88,0.00,,SKC,0.00,VWS V13.01,2013-01-07 10:04:00,
2013-01-07 04:05:00,36.1,32.9,30.12,NNE,28,0.0,0.0,88,0.00,,SKC,0.00,VWS V13.01,2013-01-07 10:05:00,
2013-01-07 04:06:00,36.1,32.9,30.12,NE,42,0.0,3.1,88,0.00,,SKC,0.00,VWS V13.01,2013-01-07 10:06:00,
2013-01-07 04:07:00,36.1,32.6,30.12,NE,42,0.0,0.0,87,0.00,,SKC,0.00,VWS V13.01,2013-01-07 10:07:00,
2013-01-07 04:08:00,36.1,33.2,30.12,NNE,19,0.0,0.0,89,0.00,,SKC,0.00,VWS V13.01,2013-01-07 10:08:00,
2013-01-07 04:09:00,36.1,33.5,30.12,NNE,19,0.0,0.0,90,0.00,,SKC,0.00,VWS V13.01,2013-01-07 10:09:00,
2013-01-07 04:10:00,36.1,33.5,30.12,NNE,19,0.0,0.0,90,0.00,,SKC,0.00,VWS V13.01,2013-01-07 10:10:00,
2013-01-07 04:11:00,36.3,33.9,30.12,NNE,32,0.0,3.1,91,0.00,,SKC,0.00,VWS V13.01,2013-01-07 10:11:00,
2013-01-07 04:12:00,36.3,33.9,30.12,North,4,2.7,2.7,91,0.00,,SKC,0.00,VWS V13.01,2013-01-07 10:12:00,
2013-01-07 04:13:00,36.3,33.9,30.12,NNE,18,2.2,3.6,91,0.00,,SKC,0.00,VWS V13.01,2013-01-07 10:13:00,
2013-01-07 04:14:00,36.3,33.9,30.12,NE,44,0.0,2.2,91,0.00,,SKC,0.00,VWS V13.01,2013-01-07 10:14:00,
2013-01-07 04:15:00,36.3,33.9,30.12,NE,44,0.0,0.0,91,0.00,,SKC,0.00,VWS V13.01,2013-01-07 10:15:00,
2013-01-07 04:16:00,36.5,34.4,30.12,NE,44,2.7,2.7,92,0.00,,SKC,0.00,VWS V13.01,2013-01-07 10:16:00,
2013-01-07 04:17:00,36.7,34.8,30.12,ENE,74,0.0,2.7,93,0.00,,SKC,0.00,VWS V13.01,2013-01-07 10:17:00,
2013-01-07 04:18:00,36.7,35.4,30.12,ENE,75,3.1,3.1,95,0.00,,SKC,0.00,VWS V13.01,2013-01-07 10:18:00,
2013-01-07 04:19:00,36.8,35.8,30.12,ENE,64,0.0,3.1,96,0.00,,SKC,0.00,VWS V13.01,2013-01-07 10:19:00,
2013-01-07 04:20:00,36.8,35.8,30.12,ENE,64,0.0,0.0,96,0.00,,SKC,0.00,VWS V13.01,2013-01-07 10:20:00,
2013-01-07 04:21:00,36.8,35.8,30.12,NNE,24,0.0,0.0,96,0.00,,SKC,0.00,VWS V13.01,2013-01-07 10:21:00,
2013-01-07 04:22:00,36.8,35.8,30.12,NE,35,2.7,2.7,96,0.00,,SKC,0.00,VWS V13.01,2013-01-07 10:22:00,
2013-01-07 04:23:00,37.0,36.2,30.12,NE,35,0.0,3.1,97,0.00,,SKC,0.00,VWS V13.01,2013-01-07 10:23:00,
2013-01-07 04:24:00,37.0,36.5,30.12,NE,35,0.0,2.7,98,0.00,,SKC,0.00,VWS V13.01,2013-01-07 10:24:00,
2013-01-07 04:25:00,37.0,36.2,30.12,NE,35,0.0,0.0,97,0.00,,SKC,0.00,VWS V13.01,2013-01-07 10:25:00,
2013-01-07 04:26:00,37.0,36.2,30.12,NE,35,0.0,0.0,97,0.00,,SKC,0.00,VWS V13.01,2013-01-07 10:26:00,
2013-01-07 04:27:00,37.0,36.0,30.12,NE,35,0.0,0.0,96,0.00,,SKC,0.00,VWS V13.01,2013-01-07 10:27:00,
2013-01-07 04:28:00,36.8,35.5,30.12,NE,35,0.0,0.0,95,0.00,,SKC,0.00,VWS V13.01,2013-01-07 10:28:00,
2013-01-07 04:29:00,36.8,35.3,30.12,NE,35,0.0,0.0,94,0.00,,SKC,0.00,VWS V13.01,2013-01-07 10:29:00,
2013-01-07 04:30:00,36.8,35.3,30.12,NE,35,0.0,0.0,94,0.00,,SKC,0.00,VWS V13.01,2013-01-07 10:30:00,
2013-01-07 04:31:00,36.8,35.0,30.12,NE,35,0.0,0.0,93,0.00,,SKC,0.00,VWS V13.01,2013-01-07 10:31:00,
2013-01-07 04:32:00,36.8,35.0,30.12,NE,35,0.0,0.0,93,0.00,,SKC,0.00,VWS V13.01,2013-01-07 10:32:00,
2013-01-07 04:33:00,36.8,35.0,30.12,NE,35,0.0,0.0,93,0.00,,SKC,0.00,VWS V13.01,2013-01-07 10:33:00,
2013-01-07 04:34:00,36.8,35.0,30.12,NE,35,0.0,2.2,93,0.00,,SKC,0.00,VWS V13.01,2013-01-07 10:34:00,
2013-01-07 04:35:00,36.8,35.0,30.12,NE,35,0.0,0.0,93,0.00,,SKC,0.00,VWS V13.01,2013-01-07 10:35:00,
2013-01-07 04:36:00,36.7,34.8,30.12,NE,35,0.0,3.1,93,0.00,,SKC,0.00,VWS V13.01,2013-01-07 10:36:00,
2013-01-07 04:37:00,36.7,34.8,30.12,NE,35,0.0,0.0,93,0.00,,SKC,0.00,VWS V13.01,2013-01-07 10:37:00,
2013-01-07 04:38:00,36.7,34.8,30.12,NE,35,0.0,0.0,93,0.00,,SKC,0.00,VWS V13.01,2013-01-07 10:38:00,
2013-01-07 04:39:00,36.7,34.6,30.12,NE,35,0.0,3.1,92,0.00,,SKC,0.00,VWS V13.01,2013-01-07 10:39:00,
2013-01-07 04:40:00,36.7,34.6,30.12,NE,35,0.0,0.0,92,0.00,,SKC,0.00,VWS V13.01,2013-01-07 10:40:00,
2013-01-07 04:41:00,36.5,34.4,30.12,NE,52,3.6,4.9,92,0.00,,SKC,0.00,VWS V13.01,2013-01-07 10:41:00,
2013-01-07 04:42:00,36.5,34.4,30.12,NNE,21,0.0,3.6,92,0.00,,SKC,0.00,VWS V13.01,2013-01-07 10:42:00,
2013-01-07 04:43:00,36.5,34.4,30.12,NNE,32,0.0,0.0,92,0.00,,SKC,0.00,VWS V13.01,2013-01-07 10:43:00,
2013-01-07 04:44:00,36.5,34.4,30.12,NNE,32,0.0,2.2,92,0.00,,SKC,0.00,VWS V13.01,2013-01-07 10:44:00,
2013-01-07 04:45:00,36.5,34.4,30.12,NNE,25,0.0,0.0,92,0.00,,SKC,0.00,VWS V13.01,2013-01-07 10:45:00,
2013-01-07 04:46:00,36.5,34.4,30.12,NNE,28,0.0,0.0,92,0.00,,SKC,0.00,VWS V13.01,2013-01-07 10:46:00,
2013-01-07 04:47:00,36.5,34.7,30.12,NNE,28,0.0,0.0,93,0.00,,SKC,0.00,VWS V13.01,2013-01-07 10:47:00,
2013-01-07 04:48:00,36.5,34.7,30.12,NNE,25,0.0,4.0,93,0.00,,SKC,0.00,VWS V13.01,2013-01-07 10:48:00,
2013-01-07 04:49:00,36.5,34.9,30.12,NNE,25,0.0,0.0,94,0.00,,SKC,0.00,VWS V13.01,2013-01-07 10:49:00,
2013-01-07 04:50:00,36.5,34.9,30.12,NNE,25,0.0,0.0,94,0.00,,SKC,0.00,VWS V13.01,2013-01-07 10:50:00,
2013-01-07 04:51:00,36.5,34.9,30.12,NE,35,0.0,3.1,94,0.00,,SKC,0.00,VWS V13.01,2013-01-07 10:51:00,
2013-01-07 04:52:00,36.5,35.2,30.12,NE,35,0.0,0.0,95,0.00,,SKC,0.00,VWS V13.01,2013-01-07 10:52:00,
2013-01-07 04:53:00,36.5,35.2,30.12,NE,35,0.0,2.2,95,0.00,,SKC,0.00,VWS V13.01,2013-01-07 10:53:00,
2013-01-07 04:54:00,36.5,34.9,30.12,NE,35,0.0,0.0,94,0.00,,SKC,0.00,VWS V13.01,2013-01-07 10:54:00,
2013-01-07 04:55:00,36.5,34.9,30.12,NE,35,0.0,0.0,94,0.00,,SKC,0.00,VWS V13.01,2013-01-07 10:55:00,
2013-01-07 04:56:00,36.3,34.7,30.12,NE,35,0.0,0.0,94,0.00,,SKC,0.00,VWS V13.01,2013-01-07 10:56:00,
2013-01-07 04:57:00,36.3,34.5,30.12,NE,35,0.0,0.0,93,0.00,,SKC,0.00,VWS V13.01,2013-01-07 10:57:00,
2013-01-07 04:58:00,36.3,34.5,30.12,NE,35,0.0,2.7,93,0.00,,SKC,0.00,VWS V13.01,2013-01-07 10:58:00,
2013-01-07 04:59:00,36.3,34.5,30.12,NE,35,0.0,0.0,93,0.00,,SKC,0.00,VWS V13.01,2013-01-07 10:59:00,
2013-01-07 05:00:00,36.3,34.5,30.12,NE,35,0.0,0.0,93,0.00,,SKC,0.00,VWS V13.01,2013-01-07 11:00:00,
2013-01-07 05:01:00,36.1,34.3,30.12,NE,35,0.0,0.0,93,0.00,,SKC,0.00,VWS V13.01,2013-01-07 11:01:00,
2013-01-07 05:02:00,36.1,34.3,30.12,NE,35,2.7,2.7,93,0.00,,SKC,0.00,VWS V13.01,2013-01-07 11:02:00,
2013-01-07 05:03:00,36.1,34.3,30.12,NNE,32,0.0,4.0,93,0.00,,SKC,0.00,VWS V13.01,2013-01-07 11:03:00,
2013-01-07 05:04:00,36.1,34.3,30.12,NNE,32,0.0,0.0,93,0.00,,SKC,0.00,VWS V13.01,2013-01-07 11:04:00,
2013-01-07 05:05:00,36.1,34.3,30.12,ENE,70,2.7,2.7,93,0.00,,SKC,0.00,VWS V13.01,2013-01-07 11:05:00,
2013-01-07 05:06:00,36.1,34.0,30.12,NE,38,0.0,0.0,92,0.00,,SKC,0.00,VWS V13.01,2013-01-07 11:06:00,
2013-01-07 05:07:00,35.9,34.1,30.12,NNE,32,0.0,3.6,93,0.00,,SKC,0.00,VWS V13.01,2013-01-07 11:07:00,
2013-01-07 05:08:00,36.1,34.3,30.12,NNE,28,0.0,0.0,93,0.00,,SKC,0.00,VWS V13.01,2013-01-07 11:08:00,
2013-01-07 05:09:00,36.1,35.1,30.12,NNE,28,0.0,0.0,96,0.00,,SKC,0.00,VWS V13.01,2013-01-07 11:09:00,
2013-01-07 05:10:00,36.1,35.3,30.12,NNE,28,0.0,0.0,97,0.00,,SKC,0.00,VWS V13.01,2013-01-07 11:10:00,
2013-01-07 05:11:00,36.1,35.3,30.12,ENE,70,3.1,3.1,97,0.00,,SKC,0.00,VWS V13.01,2013-01-07 11:11:00,
2013-01-07 05:12:00,36.1,35.3,30.12,NE,42,0.0,4.0,97,0.00,,SKC,0.00,VWS V13.01,2013-01-07 11:12:00,
2013-01-07 05:13:00,36.1,35.1,30.12,NE,42,0.0,0.0,96,0.00,,SKC,0.00,VWS V13.01,2013-01-07 11:13:00,
2013-01-07 05:14:00,36.1,35.1,30.12,NE,42,0.0,0.0,96,0.00,,SKC,0.00,VWS V13.01,2013-01-07 11:14:00,
2013-01-07 05:15:00,36.1,34.8,30.12,NE,42,0.0,0.0,95,0.00,,SKC,0.00,VWS V13.01,2013-01-07 11:15:00,
2013-01-07 05:16:00,35.9,34.7,30.12,NE,40,0.0,2.7,95,0.00,,SKC,0.00,VWS V13.01,2013-01-07 11:16:00,
2013-01-07 05:17:00,35.9,34.7,30.12,NE,49,2.7,2.7,95,0.00,,SKC,0.00,VWS V13.01,2013-01-07 11:17:00,
2013-01-07 05:18:00,35.9,34.7,30.12,NE,39,0.0,3.1,95,0.00,,SKC,0.00,VWS V13.01,2013-01-07 11:18:00,
2013-01-07 05:19:00,35.9,34.9,30.12,East,96,3.1,3.1,96,0.00,,SKC,0.00,VWS V13.01,2013-01-07 11:19:00,
2013-01-07 05:20:00,35.9,34.9,30.12,North,6,0.0,3.1,96,0.00,,SKC,0.00,VWS V13.01,2013-01-07 11:20:00,
2013-01-07 05:21:00,35.9,35.4,30.12,NNE,32,0.0,0.0,98,0.00,,SKC,0.00,VWS V13.01,2013-01-07 11:21:00,
2013-01-07 05:22:00,36.1,35.6,30.12,NNE,32,0.0,0.0,98,0.00,,SKC,0.00,VWS V13.01,2013-01-07 11:22:00,
2013-01-07 05:23:00,36.1,35.6,30.12,NE,35,0.0,2.2,98,0.00,,SKC,0.00,VWS V13.01,2013-01-07 11:23:00,
2013-01-07 05:24:00,36.1,36.1,30.12,ENE,58,0.0,3.6,100,0.00,,SKC,0.00,VWS V13.01,2013-01-07 11:24:00,
2013-01-07 05:25:00,36.1,36.1,30.12,ENE,58,0.0,0.0,100,0.00,,SKC,0.00,VWS V13.01,2013-01-07 11:25:00,
2013-01-07 05:26:00,36.3,36.3,30.12,NE,35,0.0,2.7,100,0.00,,SKC,0.00,VWS V13.01,2013-01-07 11:26:00,
2013-01-07 05:27:00,36.3,36.3,30.12,NE,35,0.0,0.0,100,0.00,,SKC,0.00,VWS V13.01,2013-01-07 11:27:00,
2013-01-07 05:28:00,36.3,36.3,30.12,NE,35,0.0,0.0,100,0.00,,SKC,0.00,VWS V13.01,2013-01-07 11:28:00,
2013-01-07 05:29:00,36.3,36.3,30.12,NNE,19,0.0,3.1,100,0.00,,SKC,0.00,VWS V13.01,2013-01-07 11:29:00,
2013-01-07 05:30:00,36.3,36.3,30.12,NNE,19,0.0,0.0,100,0.00,,SKC,0.00,VWS V13.01,2013-01-07 11:30:00,
2013-01-07 05:31:00,36.3,36.3,30.12,NE,40,0.0,3.1,100,0.00,,SKC,0.00,VWS V13.01,2013-01-07 11:31:00,
2013-01-07 05:32:00,36.3,36.3,30.12,NE,40,0.0,0.0,100,0.00,,SKC,0.00,VWS V13.01,2013-01-07 11:32:00,
2013-01-07 05:33:00,36.3,36.3,30.12,NE,52,3.6,3.6,100,0.00,,SKC,0.00,VWS V13.01,2013-01-07 11:33:00,
2013-01-07 05:34:00,36.3,36.3,30.12,NE,52,0.0,3.6,100,0.00,,SKC,0.00,VWS V13.01,2013-01-07 11:34:00,
2013-01-07 05:35:00,36.3,36.3,30.12,NE,52,0.0,0.0,100,0.00,,SKC,0.00,VWS V13.01,2013-01-07 11:35:00,
2013-01-07 05:36:00,36.3,35.8,30.12,NE,52,0.0,0.0,98,0.00,,SKC,0.00,VWS V13.01,2013-01-07 11:36:00,
2013-01-07 05:37:00,36.1,35.6,30.12,ENE,66,3.6,3.6,98,0.00,,SKC,0.00,VWS V13.01,2013-01-07 11:37:00,
2013-01-07 05:38:00,36.1,35.3,30.12,ENE,66,0.0,3.6,97,0.00,,SKC,0.00,VWS V13.01,2013-01-07 11:38:00,
2013-01-07 05:39:00,36.3,35.5,30.12,NE,46,4.0,4.0,97,0.00,,SKC,0.00,VWS V13.01,2013-01-07 11:39:00,
2013-01-07 05:40:00,36.3,35.5,30.12,NE,46,4.0,4.0,97,0.00,,SKC,0.00,VWS V13.01,2013-01-07 11:40:00,
2013-01-07 05:41:00,36.3,35.8,30.12,NE,50,0.0,2.7,98,0.00,,SKC,0.00,VWS V13.01,2013-01-07 11:41:00,
2013-01-07 05:42:00,36.3,35.8,30.12,NE,47,0.0,3.6,98,0.00,,SKC,0.00,VWS V13.01,2013-01-07 11:42:00,
2013-01-07 05:43:00,36.3,35.8,30.12,NE,56,2.2,3.1,98,0.00,,SKC,0.00,VWS V13.01,2013-01-07 11:43:00,
2013-01-07 05:44:00,36.3,35.8,30.12,NE,56,0.0,2.2,98,0.00,,SKC,0.00,VWS V13.01,2013-01-07 11:44:00,
2013-01-07 05:45:00,36.3,35.8,30.12,NE,56,0.0,0.0,98,0.00,,SKC,0.00,VWS V13.01,2013-01-07 11:45:00,
2013-01-07 05:46:00,36.1,35.3,30.12,NE,45,0.0,3.1,97,0.00,,SKC,0.00,VWS V13.01,2013-01-07 11:46:00,
2013-01-07 05:47:00,36.1,34.8,30.12,NE,35,0.0,4.0,95,0.00,,SKC,0.00,VWS V13.01,2013-01-07 11:47:00,
2013-01-07 05:48:00,36.1,35.1,30.12,NE,52,3.6,3.6,96,0.00,,SKC,0.00,VWS V13.01,2013-01-07 11:48:00,
2013-01-07 05:49:00,36.1,35.1,30.12,NNE,32,0.0,4.9,96,0.00,,SKC,0.00,VWS V13.01,2013-01-07 11:49:00,
2013-01-07 05:50:00,36.1,35.3,30.12,ENE,71,2.7,2.7,97,0.00,,SKC,0.00,VWS V13.01,2013-01-07 11:50:00,
2013-01-07 05:51:00,36.1,35.6,30.12,NE,41,0.0,0.0,98,0.00,,SKC,0.00,VWS V13.01,2013-01-07 11:51:00,
2013-01-07 05:52:00,36.1,35.6,30.12,ENE,68,0.0,0.0,98,0.00,,SKC,0.00,VWS V13.01,2013-01-07 11:52:00,
2013-01-07 05:53:00,36.1,35.9,30.12,NE,53,0.0,0.0,99,0.00,,SKC,0.00,VWS V13.01,2013-01-07 11:53:00,
2013-01-07 05:54:00,36.3,36.0,30.12,NE,45,0.0,0.0,99,0.00,,SKC,0.00,VWS V13.01,2013-01-07 11:54:00,
2013-01-07 05:55:00,36.3,36.3,30.12,NE,45,0.0,0.0,100,0.00,,SKC,0.00,VWS V13.01,2013-01-07 11:55:00,
2013-01-07 05:56:00,36.3,36.3,30.12,East,83,0.0,0.0,100,0.00,,SKC,0.00,VWS V13.01,2013-01-07 11:56:00,
2013-01-07 05:57:00,36.3,36.0,30.12,NE,41,0.0,4.9,99,0.00,,SKC,0.00,VWS V13.01,2013-01-07 11:57:00,
2013-01-07 05:58:00,36.3,35.8,30.12,NE,41,0.0,0.0,98,0.00,,SKC,0.00,VWS V13.01,2013-01-07 11:58:00,
2013-01-07 05:59:00,36.3,35.8,30.12,NE,50,0.0,3.6,98,0.00,,SKC,0.00,VWS V13.01,2013-01-07 11:59:00,
2013-01-07 06:00:00,36.3,35.8,30.12,NE,50,0.0,0.0,98,0.00,,SKC,0.00,VWS V13.01,2013-01-07 12:00:00,
2013-01-07 06:01:00,36.3,35.8,30.12,NE,35,0.0,2.7,98,0.00,,SKC,0.00,VWS V13.01,2013-01-07 12:01:00,
2013-01-07 06:02:00,36.3,35.8,30.12,NE,35,0.0,0.0,98,0.00,,SKC,0.00,VWS V13.01,2013-01-07 12:02:00,
2013-01-07 06:03:00,36.3,35.8,30.12,NE,35,0.0,2.2,98,0.00,,SKC,0.00,VWS V13.01,2013-01-07 12:03:00,
2013-01-07 06:04:00,36.3,36.0,30.12,NE,39,2.7,3.6,99,0.00,,SKC,0.00,VWS V13.01,2013-01-07 12:04:00,
2013-01-07 06:05:00,36.3,36.0,30.12,NE,40,3.6,3.6,99,0.00,,SKC,0.00,VWS V13.01,2013-01-07 12:05:00,
2013-01-07 06:06:00,36.5,36.5,30.12,NE,40,0.0,3.6,100,0.00,,SKC,0.00,VWS V13.01,2013-01-07 12:06:00,
2013-01-07 06:07:00,36.5,36.5,30.12,NE,40,0.0,2.7,100,0.00,,SKC,0.00,VWS V13.01,2013-01-07 12:07:00,
2013-01-07 06:08:00,36.5,36.5,30.12,NE,41,0.0,3.1,100,0.00,,SKC,0.00,VWS V13.01,2013-01-07 12:08:00,
2013-01-07 06:09:00,36.5,36.0,30.12,NE,51,3.1,3.1,98,0.00,,SKC,0.00,VWS V13.01,2013-01-07 12:09:00,
2013-01-07 06:10:00,36.5,36.0,30.12,ENE,72,0.0,5.8,98,0.00,,SKC,0.00,VWS V13.01,2013-01-07 12:10:00,
2013-01-07 06:11:00,36.5,36.2,30.15,NE,50,3.1,3.1,99,0.00,,SKC,0.00,VWS V13.01,2013-01-07 12:11:00,
2013-01-07 06:12:00,36.5,36.0,30.15,ENE,62,0.0,3.1,98,0.00,,SKC,0.00,VWS V13.01,2013-01-07 12:12:00,
2013-01-07 06:13:00,36.5,36.0,30.15,NE,43,0.0,4.0,98,0.00,,SKC,0.00,VWS V13.01,2013-01-07 12:13:00,
2013-01-07 06:14:00,36.5,35.7,30.15,NE,43,0.0,0.0,97,0.00,,SKC,0.00,VWS V13.01,2013-01-07 12:14:00,
2013-01-07 06:15:00,36.5,35.5,30.15,NE,47,2.2,2.2,96,0.00,,SKC,0.00,VWS V13.01,2013-01-07 12:15:00,
2013-01-07 06:16:00,36.5,34.9,30.15,ENE,58,3.1,4.0,94,0.00,,SKC,0.00,VWS V13.01,2013-01-07 12:16:00,
2013-01-07 06:17:00,36.5,34.9,30.15,NE,40,0.0,4.0,94,0.00,,SKC,0.00,VWS V13.01,2013-01-07 12:17:00,
2013-01-07 06:18:00,36.5,34.9,30.15,East,92,2.7,3.1,94,0.00,,SKC,0.00,VWS V13.01,2013-01-07 12:18:00,
2013-01-07 06:19:00,36.5,34.9,30.15,ENE,78,0.0,3.1,94,0.00,,SKC,0.00,VWS V13.01,2013-01-07 12:19:00,
2013-01-07 06:20:00,36.5,34.9,30.15,East,79,0.0,2.7,94,0.00,,SKC,0.00,VWS V13.01,2013-01-07 12:20:00,
2013-01-07 06:21:00,36.5,34.9,30.15,East,79,0.0,0.0,94,0.00,,SKC,0.00,VWS V13.01,2013-01-07 12:21:00,
2013-01-07 06:22:00,36.5,34.9,30.15,NE,41,3.6,3.6,94,0.00,,SKC,0.00,VWS V13.01,2013-01-07 12:22:00,
2013-01-07 06:23:00,36.5,34.9,30.15,NE,41,0.0,3.6,94,0.00,,SKC,0.00,VWS V13.01,2013-01-07 12:23:00,
2013-01-07 06:24:00,36.7,35.4,30.15,NE,41,0.0,0.0,95,0.00,,SKC,0.00,VWS V13.01,2013-01-07 12:24:00,
2013-01-07 06:25:00,36.7,35.6,30.15,ENE,70,0.0,2.7,96,0.00,,SKC,0.00,VWS V13.01,2013-01-07 12:25:00,
2013-01-07 06:26:00,36.7,35.6,30.15,ENE,70,0.0,0.0,96,0.00,,SKC,0.00,VWS V13.01,2013-01-07 12:26:00,
2013-01-07 06:27:00,36.7,35.6,30.15,ENE,74,0.0,0.0,96,0.00,,SKC,0.00,VWS V13.01,2013-01-07 12:27:00,
2013-01-07 06:28:00,36.7,35.4,30.15,ENE,75,0.0,0.0,95,0.00,,SKC,0.00,VWS V13.01,2013-01-07 12:28:00,
2013-01-07 06:29:00,36.7,35.1,30.15,ENE,75,0.0,0.0,94,0.00,,SKC,0.00,VWS V13.01,2013-01-07 12:29:00,
2013-01-07 06:30:00,36.7,35.1,30.15,ENE,60,0.0,0.0,94,0.00,,SKC,0.00,VWS V13.01,2013-01-07 12:30:00,
2013-01-07 06:31:00,36.7,34.8,30.15,ENE,68,0.0,0.0,93,0.00,,SKC,0.00,VWS V13.01,2013-01-07 12:31:00,
2013-01-07 06:32:00,36.7,34.6,30.15,ENE,66,0.0,0.0,92,0.00,,SKC,0.00,VWS V13.01,2013-01-07 12:32:00,
2013-01-07 06:33:00,36.7,34.3,30.15,ENE,73,0.0,4.0,91,0.00,,SKC,0.00,VWS V13.01,2013-01-07 12:33:00,
2013-01-07 06:34:00,36.7,34.0,30.15,ENE,59,0.0,0.0,90,0.00,,SKC,0.00,VWS V13.01,2013-01-07 12:34:00,
2013-01-07 06:35:00,36.7,34.0,30.15,NE,52,2.7,4.0,90,0.00,,SKC,0.00,VWS V13.01,2013-01-07 12:35:00,
2013-01-07 06:39:00,36.7,33.5,30.15,NE,56,0.0,0.0,88,0.00,,SKC,0.00,VWS V13.01,2013-01-07 12:39:00,
2013-01-07 06:45:00,36.7,33.5,30.15,NNE,32,0.0,0.0,88,0.00,,SKC,0.00,VWS V13.01,2013-01-07 12:45:00,
2013-01-07 06:50:00,36.7,33.7,30.15,NE,41,2.7,2.7,89,0.00,,SKC,0.00,VWS V13.01,2013-01-07 12:50:00,
2013-01-07 06:55:00,36.5,33.0,30.15,NE,55,3.1,3.1,87,0.00,,SKC,0.00,VWS V13.01,2013-01-07 12:55:00,
2013-01-07 07:00:00,36.5,34.1,30.15,NE,46,3.6,3.6,91,0.00,,SKC,0.00,VWS V13.01,2013-01-07 13:00:00,
2013-01-07 07:05:00,36.5,33.5,30.15,NE,38,2.7,4.9,89,0.00,,SKC,0.00,VWS V13.01,2013-01-07 13:05:00,
2013-01-07 07:10:00,36.5,33.8,30.15,NE,45,4.0,4.5,90,0.00,,SKC,0.00,VWS V13.01,2013-01-07 13:10:00,
2013-01-07 07:15:00,36.5,34.1,30.15,ENE,75,2.7,3.1,91,0.00,,SKC,0.00,VWS V13.01,2013-01-07 13:15:00,
2013-01-07 07:20:00,36.7,34.8,30.15,ENE,65,0.0,0.0,93,0.00,,SKC,0.00,VWS V13.01,2013-01-07 13:20:00,
2013-01-07 07:25:00,36.8,35.3,30.15,NE,35,0.0,2.7,94,0.00,,SKC,0.00,VWS V13.01,2013-01-07 13:25:00,
2013-01-07 07:30:00,37.2,35.1,30.15,NE,44,4.0,4.0,92,0.00,,SKC,0.00,VWS V13.01,2013-01-07 13:30:00,
2013-01-07 07:35:00,37.4,34.7,30.15,NE,35,4.5,4.5,90,0.00,,SKC,0.00,VWS V13.01,2013-01-07 13:35:00,
2013-01-07 07:40:00,37.7,34.5,30.15,ENE,60,3.1,3.1,88,0.00,,SKC,0.00,VWS V13.01,2013-01-07 13:40:00,
2013-01-07 07:45:00,38.1,34.3,30.15,NE,35,0.0,2.7,86,0.00,,SKC,0.00,VWS V13.01,2013-01-07 13:45:00,
2013-01-07 07:50:00,38.5,34.6,30.15,East,99,6.3,6.3,86,0.00,,SKC,0.00,VWS V13.01,2013-01-07 13:50:00,
2013-01-07 07:55:00,38.6,34.2,30.15,ENE,61,4.9,4.9,84,0.00,,SKC,0.00,VWS V13.01,2013-01-07 13:55:00,
2013-01-07 08:00:00,39.2,34.8,30.15,East,91,5.8,5.8,84,0.00,,SKC,0.00,VWS V13.01,2013-01-07 14:00:00,
2013-01-07 08:05:00,39.5,34.5,30.15,East,91,4.0,4.0,82,0.00,,SKC,0.00,VWS V13.01,2013-01-07 14:05:00,
2013-01-07 08:09:00,40.1,34.4,30.15,ENE,62,5.8,5.8,80,0.00,,SKC,0.00,VWS V13.01,2013-01-07 14:09:00,
2013-01-07 08:14:00,40.4,33.8,30.15,ENE,70,4.0,8.3,77,0.00,,SKC,0.00,VWS V13.01,2013-01-07 14:14:00,
2013-01-07 08:19:00,41.0,34.7,30.15,NNE,14,5.4,5.4,78,0.00,,SKC,0.00,VWS V13.01,2013-01-07 14:19:00,
2013-01-07 08:24:00,41.5,34.9,30.15,ENE,61,5.4,5.4,77,0.00,,SKC,0.00,VWS V13.01,2013-01-07 14:24:00,
2013-01-07 08:29:00,42.1,35.4,30.18,ESE,114,4.0,4.9,77,0.00,,SKC,0.00,VWS V13.01,2013-01-07 14:29:00,
2013-01-07 08:34:00,42.6,34.9,30.18,NE,54,4.0,4.0,74,0.00,,SKC,0.00,VWS V13.01,2013-01-07 14:34:00,
2013-01-07 08:39:00,43.1,34.4,30.18,East,79,5.4,11.0,71,0.00,,SKC,0.00,VWS V13.01,2013-01-07 14:39:00,
2013-01-07 08:44:00,43.7,35.6,30.18,ENE,67,9.6,9.6,73,0.00,,SKC,0.00,VWS V13.01,2013-01-07 14:44:00,
2013-01-07 08:49:00,44.0,33.8,30.18,East,79,10.1,10.1,67,0.00,,SKC,0.00,VWS V13.01,2013-01-07 14:49:00,
2013-01-07 08:54:00,44.6,33.9,30.18,NNE,28,6.3,6.3,66,0.00,,SKC,0.00,VWS V13.01,2013-01-07 14:54:00,
2013-01-07 08:59:00,45.1,34.5,30.18,ENE,67,4.0,8.3,66,0.00,,SKC,0.00,VWS V13.01,2013-01-07 14:59:00,
2013-01-07 09:04:00,45.7,34.2,30.18,ENE,70,9.6,10.5,64,0.00,,SKC,0.00,VWS V13.01,2013-01-07 15:04:00,
2013-01-07 09:09:00,46.0,34.1,30.18,ENE,64,6.3,7.6,63,0.00,,SKC,0.00,VWS V13.01,2013-01-07 15:09:00,
2013-01-07 09:14:00,46.4,34.1,30.18,East,89,5.4,5.4,62,0.00,,SKC,0.00,VWS V13.01,2013-01-07 15:14:00,
2013-01-07 09:19:00,46.7,34.4,30.18,ENE,57,5.4,6.3,62,0.00,,SKC,0.00,VWS V13.01,2013-01-07 15:19:00,
2013-01-07 09:24:00,47.3,34.9,30.18,ENE,60,8.7,8.7,62,0.00,,SKC,0.00,VWS V13.01,2013-01-07 15:24:00,
2013-01-07 09:29:00,47.8,35.0,30.18,ENE,70,8.3,8.7,61,0.00,,SKC,0.00,VWS V13.01,2013-01-07 15:29:00,
2013-01-07 09:34:00,48.2,34.5,30.18,ENE,71,10.5,10.5,59,0.00,,SKC,0.00,VWS V13.01,2013-01-07 15:34:00,
2013-01-07 09:39:00,48.7,35.9,30.18,ENE,57,5.4,6.7,61,0.00,,SKC,0.00,VWS V13.01,2013-01-07 15:39:00,
2013-01-07 09:44:00,49.3,35.6,30.18,ENE,57,8.1,8.1,59,0.00,,SKC,0.00,VWS V13.01,2013-01-07 15:44:00,
2013-01-07 09:49:00,49.4,35.7,30.18,East,97,7.6,8.7,59,0.00,,SKC,0.00,VWS V13.01,2013-01-07 15:49:00,
2013-01-07 09:54:00,49.4,34.4,30.18,East,96,8.3,10.5,56,0.00,,SKC,0.00,VWS V13.01,2013-01-07 15:54:00,
2013-01-07 09:59:00,50.0,35.8,30.18,NE,35,4.9,7.6,58,0.00,,SKC,0.00,VWS V13.01,2013-01-07 15:59:00,
2013-01-07 10:04:00,50.3,36.1,30.18,ENE,62,5.4,8.1,58,0.00,,SKC,0.00,VWS V13.01,2013-01-07 16:04:00,
2013-01-07 10:09:00,50.7,35.6,30.18,East,95,7.6,7.6,56,0.00,,SKC,0.00,VWS V13.01,2013-01-07 16:09:00,
2013-01-07 10:14:00,51.1,35.9,30.18,ENE,70,3.6,8.1,56,0.00,,SKC,0.00,VWS V13.01,2013-01-07 16:14:00,
2013-01-07 10:19:00,51.2,36.1,30.18,East,81,3.1,5.8,56,0.00,,SKC,0.00,VWS V13.01,2013-01-07 16:19:00,
2013-01-07 10:24:00,51.6,36.0,30.18,ESE,102,7.6,7.6,55,0.00,,SKC,0.00,VWS V13.01,2013-01-07 16:24:00,
2013-01-07 10:29:00,52.0,36.3,30.18,NE,52,3.1,8.7,55,0.00,,SKC,0.00,VWS V13.01,2013-01-07 16:29:00,
2013-01-07 10:34:00,52.1,36.5,30.18,ENE,76,6.3,8.7,55,0.00,,SKC,0.00,VWS V13.01,2013-01-07 16:34:00,
2013-01-07 10:39:00,52.3,36.7,30.18,NE,48,3.1,8.7,55,0.00,,SKC,0.00,VWS V13.01,2013-01-07 16:39:00,
2013-01-07 10:44:00,52.9,37.2,30.15,East,79,7.2,7.6,55,0.00,,SKC,0.00,VWS V13.01,2013-01-07 16:44:00,
2013-01-07 10:49:00,53.6,37.8,30.15,NE,52,6.3,7.2,55,0.00,,SKC,0.00,VWS V13.01,2013-01-07 16:49:00,
2013-01-07 10:54:00,53.9,38.2,30.15,NE,41,6.3,8.1,55,0.00,,SKC,0.00,VWS V13.01,2013-01-07 16:54:00,
2013-01-07 10:59:00,54.3,38.5,30.15,NE,45,5.8,5.8,55,0.00,,SKC,0.00,VWS V13.01,2013-01-07 16:59:00,
2013-01-07 11:04:00,54.7,38.8,30.15,North,4,7.6,7.6,55,0.00,,SKC,0.00,VWS V13.01,2013-01-07 17:04:00,
2013-01-07 11:09:00,55.0,39.2,30.15,East,84,7.6,8.7,55,0.00,,SKC,0.00,VWS V13.01,2013-01-07 17:09:00,
2013-01-07 11:14:00,55.0,39.2,30.15,East,99,4.0,5.4,55,0.00,,SKC,0.00,VWS V13.01,2013-01-07 17:14:00,
2013-01-07 11:19:00,55.7,39.4,30.15,NNE,19,5.8,5.8,54,0.00,,SKC,0.00,VWS V13.01,2013-01-07 17:19:00,
2013-01-07 11:24:00,55.9,39.5,30.15,NE,45,8.3,8.3,54,0.00,,SKC,0.00,VWS V13.01,2013-01-07 17:24:00,
2013-01-07 11:29:00,56.1,39.7,30.15,ESE,103,5.8,5.8,54,0.00,,SKC,0.00,VWS V13.01,2013-01-07 17:29:00,
2013-01-07 11:34:00,56.3,39.9,30.15,East,80,5.8,10.1,54,0.00,,SKC,0.00,VWS V13.01,2013-01-07 17:34:00,
2013-01-07 11:39:00,56.8,40.4,30.15,ESE,102,5.4,8.1,54,0.00,,SKC,0.00,VWS V13.01,2013-01-07 17:39:00,
2013-01-07 11:44:00,57.2,40.7,30.12,East,88,6.3,6.3,54,0.00,,SKC,0.00,VWS V13.01,2013-01-07 17:44:00,
2013-01-07 11:49:00,57.5,41.0,30.12,East,89,4.0,4.9,54,0.00,,SKC,0.00,VWS V13.01,2013-01-07 17:49:00,
2013-01-07 11:54:00,57.7,41.2,30.12,ENE,59,3.6,4.0,54,0.00,,SKC,0.00,VWS V13.01,2013-01-07 17:54:00,
2013-01-07 11:59:00,58.1,41.5,30.12,SSE,165,5.4,5.4,54,0.00,,SKC,0.00,VWS V13.01,2013-01-07 17:59:00,
2013-01-07 12:04:00,58.4,41.9,30.12,East,100,4.9,6.3,54,0.00,,SKC,0.00,VWS V13.01,2013-01-07 18:04:00,
2013-01-07 12:09:00,58.6,42.0,30.12,East,97,6.3,6.7,54,0.00,,SKC,0.00,VWS V13.01,2013-01-07 18:09:00,
2013-01-07 12:14:00,58.6,42.0,30.12,ESE,123,5.8,5.8,54,0.00,,SKC,0.00,VWS V13.01,2013-01-07 18:14:00,
2013-01-07 12:19:00,58.6,42.0,30.12,ENE,71,3.1,4.0,54,0.00,,SKC,0.00,VWS V13.01,2013-01-07 18:19:00,
2013-01-07 12:24:00,58.8,42.2,30.12,SE,132,4.9,4.9,54,0.00,,SKC,0.00,VWS V13.01,2013-01-07 18:24:00,
2013-01-07 12:29:00,59.0,42.4,30.12,SSE,151,5.4,6.7,54,0.00,,SKC,0.00,VWS V13.01,2013-01-07 18:29:00,
2013-01-07 12:34:00,59.2,42.5,30.12,ESE,113,5.4,5.4,54,0.00,,SKC,0.00,VWS V13.01,2013-01-07 18:34:00,
2013-01-07 12:39:00,59.3,42.7,30.12,East,99,3.1,4.9,54,0.00,,SKC,0.00,VWS V13.01,2013-01-07 18:39:00,
2013-01-07 12:44:00,59.5,42.9,30.09,SSE,160,4.9,5.8,54,0.00,,SKC,0.00,VWS V13.01,2013-01-07 18:44:00,
2013-01-07 12:49:00,59.5,42.9,30.09,SE,146,5.4,5.4,54,0.00,,SKC,0.00,VWS V13.01,2013-01-07 18:49:00,
2013-01-07 12:54:00,59.5,42.9,30.09,ESE,103,6.7,6.7,54,0.00,,SKC,0.00,VWS V13.01,2013-01-07 18:54:00,
2013-01-07 12:59:00,59.9,43.2,30.09,ESE,103,2.7,2.7,54,0.00,,SKC,0.00,VWS V13.01,2013-01-07 18:59:00,
2013-01-07 13:04:00,59.9,43.2,30.09,East,90,3.6,5.8,54,0.00,,SKC,0.00,VWS V13.01,2013-01-07 19:04:00,
2013-01-07 13:09:00,59.9,43.2,30.09,East,86,3.6,4.9,54,0.00,,SKC,0.00,VWS V13.01,2013-01-07 19:09:00,
2013-01-07 13:14:00,59.9,43.2,30.09,East,84,2.7,3.1,54,0.00,,SKC,0.00,VWS V13.01,2013-01-07 19:14:00,
2013-01-07 13:19:00,59.9,43.2,30.09,East,93,5.4,5.4,54,0.00,,SKC,0.00,VWS V13.01,2013-01-07 19:19:00,
2013-01-07 13:24:00,59.9,43.2,30.09,SSE,163,5.8,6.3,54,0.00,,SKC,0.00,VWS V13.01,2013-01-07 19:24:00,
2013-01-07 13:29:00,59.9,43.2,30.09,ESE,117,5.4,5.4,54,0.00,,SKC,0.00,VWS V13.01,2013-01-07 19:29:00,
2013-01-07 13:34:00,59.7,43.0,30.09,SSE,149,4.0,6.3,54,0.00,,SKC,0.00,VWS V13.01,2013-01-07 19:34:00,
2013-01-07 13:39:00,59.5,42.9,30.09,SSE,161,5.8,5.8,54,0.00,,SKC,0.00,VWS V13.01,2013-01-07 19:39:00,
2013-01-07 13:44:00,59.3,42.7,30.06,SSE,155,5.4,5.4,54,0.00,,SKC,0.00,VWS V13.01,2013-01-07 19:44:00,
2013-01-07 13:49:00,59.2,42.5,30.06,SE,140,6.3,7.6,54,0.00,,SKC,0.00,VWS V13.01,2013-01-07 19:49:00,
2013-01-07 13:54:00,59.0,42.4,30.06,East,101,5.8,5.8,54,0.00,,SKC,0.00,VWS V13.01,2013-01-07 19:54:00,
2013-01-07 13:59:00,58.4,41.9,30.06,SE,142,5.4,5.8,54,0.00,,SKC,0.00,VWS V13.01,2013-01-07 19:59:00,
2013-01-07 14:04:00,58.4,41.9,30.06,SE,138,3.1,3.1,54,0.00,,SKC,0.00,VWS V13.01,2013-01-07 20:04:00,
2013-01-07 14:09:00,58.4,41.9,30.06,ESE,109,4.9,6.3,54,0.00,,SKC,0.00,VWS V13.01,2013-01-07 20:09:00,
2013-01-07 14:14:00,58.4,41.9,30.06,East,86,6.7,6.7,54,0.00,,SKC,0.00,VWS V13.01,2013-01-07 20:14:00,
2013-01-07 14:19:00,58.1,41.5,30.06,ESE,110,7.2,7.2,54,0.00,,SKC,0.00,VWS V13.01,2013-01-07 20:19:00,
2013-01-07 14:24:00,58.1,41.5,30.06,SE,129,7.6,7.6,54,0.00,,SKC,0.00,VWS V13.01,2013-01-07 20:24:00,
2013-01-07 14:29:00,58.3,41.7,30.09,SSE,151,3.1,4.0,54,0.00,,SKC,0.00,VWS V13.01,2013-01-07 20:29:00,
2013-01-07 14:34:00,58.3,41.7,30.09,SSE,165,3.6,7.6,54,0.00,,SKC,0.00,VWS V13.01,2013-01-07 20:34:00,
2013-01-07 14:39:00,58.3,41.7,30.09,ESE,122,5.8,6.3,54,0.00,,SKC,0.00,VWS V13.01,2013-01-07 20:39:00,
2013-01-07 14:44:00,57.7,41.2,30.06,ESE,109,4.0,6.3,54,0.00,,SKC,0.00,VWS V13.01,2013-01-07 20:44:00,
2013-01-07 14:49:00,57.0,40.5,30.06,SSE,168,3.1,3.1,54,0.00,,SKC,0.00,VWS V13.01,2013-01-07 20:49:00,
2013-01-07 14:54:00,56.6,40.2,30.06,SE,140,0.0,2.7,54,0.00,,SKC,0.00,VWS V13.01,2013-01-07 20:54:00,
2013-01-07 14:59:00,56.1,39.7,30.06,SSE,157,5.4,5.4,54,0.00,,SKC,0.00,VWS V13.01,2013-01-07 20:59:00,
2013-01-07 15:04:00,56.1,39.7,30.06,SE,143,4.0,4.0,54,0.00,,SKC,0.00,VWS V13.01,2013-01-07 21:04:00,
2013-01-07 15:09:00,56.5,40.0,30.06,SE,132,4.0,4.0,54,0.00,,SKC,0.00,VWS V13.01,2013-01-07 21:09:00,
2013-01-07 15:14:00,56.8,40.4,30.09,SE,126,5.8,5.8,54,0.00,,SKC,0.00,VWS V13.01,2013-01-07 21:14:00,
2013-01-07 15:19:00,57.2,40.7,30.09,East,96,5.4,5.8,54,0.00,,SKC,0.00,VWS V13.01,2013-01-07 21:19:00,
2013-01-07 15:24:00,57.2,40.7,30.09,SSE,149,2.7,4.0,54,0.00,,SKC,0.00,VWS V13.01,2013-01-07 21:24:00,
2013-01-07 15:29:00,56.8,40.4,30.09,SSE,167,3.6,3.6,54,0.00,,SKC,0.00,VWS V13.01,2013-01-07 21:29:00,
2013-01-07 15:34:00,56.6,40.2,30.09,SSE,154,5.8,7.6,54,0.00,,SKC,0.00,VWS V13.01,2013-01-07 21:34:00,
2013-01-07 15:39:00,56.1,39.7,30.09,ESE,115,3.6,4.0,54,0.00,,SKC,0.00,VWS V13.01,2013-01-07 21:39:00,
2013-01-07 15:44:00,55.7,39.4,30.09,ESE,118,2.7,3.1,54,0.00,,SKC,0.00,VWS V13.01,2013-01-07 21:44:00,
2013-01-07 15:49:00,55.4,39.0,30.09,SSE,155,4.0,4.0,54,0.00,,SKC,0.00,VWS V13.01,2013-01-07 21:49:00,
2013-01-07 15:54:00,55.0,39.2,30.09,SSE,150,4.9,4.9,55,0.00,,SKC,0.00,VWS V13.01,2013-01-07 21:54:00,
2013-01-07 15:59:00,54.8,39.0,30.09,ESE,111,3.1,3.1,55,0.00,,SKC,0.00,VWS V13.01,2013-01-07 21:59:00,
2013-01-07 16:04:00,54.7,38.8,30.09,East,93,3.6,3.6,55,0.00,,SKC,0.00,VWS V13.01,2013-01-07 22:04:00,
2013-01-07 16:09:00,54.7,38.8,30.09,ESE,114,2.2,2.2,55,0.00,,SKC,0.00,VWS V13.01,2013-01-07 22:09:00,
2013-01-07 16:13:00,54.5,38.7,30.09,SSE,161,2.7,2.7,55,0.00,,SKC,0.00,VWS V13.01,2013-01-07 22:13:00,
2013-01-07 16:18:00,54.5,38.7,30.09,ESE,119,3.1,3.1,55,0.00,,SKC,0.00,VWS V13.01,2013-01-07 22:18:00,
2013-01-07 16:23:00,54.5,38.7,30.09,SSE,168,3.1,4.0,55,0.00,,SKC,0.00,VWS V13.01,2013-01-07 22:23:00,
2013-01-07 16:28:00,54.5,38.7,30.09,SE,133,2.7,3.6,55,0.00,,SKC,0.00,VWS V13.01,2013-01-07 22:28:00,
2013-01-07 16:33:00,54.3,38.5,30.09,SE,128,2.2,2.2,55,0.00,,SKC,0.00,VWS V13.01,2013-01-07 22:33:00,
2013-01-07 16:38:00,54.1,38.3,30.09,ESE,102,3.1,3.1,55,0.00,,SKC,0.00,VWS V13.01,2013-01-07 22:38:00,
2013-01-07 16:43:00,53.9,38.2,30.09,SE,129,0.0,0.0,55,0.00,,SKC,0.00,VWS V13.01,2013-01-07 22:43:00,
2013-01-07 16:48:00,53.6,37.8,30.09,ESE,106,2.7,2.7,55,0.00,,SKC,0.00,VWS V13.01,2013-01-07 22:48:00,
2013-01-07 16:53:00,53.4,37.7,30.09,SE,124,0.0,0.0,55,0.00,,SKC,0.00,VWS V13.01,2013-01-07 22:53:00,
2013-01-07 16:58:00,53.0,38.7,30.09,SE,124,0.0,0.0,58,0.00,,SKC,0.00,VWS V13.01,2013-01-07 22:58:00,
2013-01-07 17:03:00,52.5,39.0,30.09,SE,124,0.0,0.0,60,0.00,,SKC,0.00,VWS V13.01,2013-01-07 23:03:00,
2013-01-07 17:08:00,52.3,39.3,30.09,SE,124,0.0,0.0,61,0.00,,SKC,0.00,VWS V13.01,2013-01-07 23:08:00,
2013-01-07 17:13:00,52.0,39.0,30.09,SE,124,0.0,0.0,61,0.00,,SKC,0.00,VWS V13.01,2013-01-07 23:13:00,
2013-01-07 17:18:00,51.8,38.8,30.09,SE,124,0.0,0.0,61,0.00,,SKC,0.00,VWS V13.01,2013-01-07 23:18:00,
2013-01-07 17:23:00,51.6,38.6,30.09,SE,124,0.0,0.0,61,0.00,,SKC,0.00,VWS V13.01,2013-01-07 23:23:00,
2013-01-07 17:28:00,51.6,39.4,30.09,SE,124,0.0,0.0,63,0.00,,SKC,0.00,VWS V13.01,2013-01-07 23:28:00,
2013-01-07 17:33:00,51.2,39.1,30.09,SE,124,0.0,0.0,63,0.00,,SKC,0.00,VWS V13.01,2013-01-07 23:33:00,
2013-01-07 17:38:00,51.1,40.1,30.09,SE,124,0.0,0.0,66,0.00,,SKC,0.00,VWS V13.01,2013-01-07 23:38:00,
2013-01-07 17:43:00,51.1,40.1,30.09,SE,124,0.0,0.0,66,0.00,,SKC,0.00,VWS V13.01,2013-01-07 23:43:00,
2013-01-07 17:48:00,50.9,39.9,30.09,SE,124,0.0,0.0,66,0.00,,SKC,0.00,VWS V13.01,2013-01-07 23:48:00,
2013-01-07 17:53:00,51.1,41.3,30.09,SE,124,0.0,0.0,69,0.00,,SKC,0.00,VWS V13.01,2013-01-07 23:53:00,
2013-01-07 17:58:00,50.7,41.3,30.09,SE,124,0.0,0.0,70,0.00,,SKC,0.00,VWS V13.01,2013-01-07 23:58:00,
2013-01-07 18:03:00,50.5,41.5,30.09,SE,124,0.0,0.0,71,0.00,,SKC,0.00,VWS V13.01,2013-01-08 00:03:00,
2013-01-07 18:08:00,50.5,41.5,30.09,SE,124,0.0,0.0,71,0.00,,SKC,0.00,VWS V13.01,2013-01-08 00:08:00,
2013-01-07 18:13:00,50.3,41.3,30.09,SE,124,0.0,0.0,71,0.00,,SKC,0.00,VWS V13.01,2013-01-08 00:13:00,
2013-01-07 18:18:00,50.3,41.7,30.09,SE,124,0.0,0.0,72,0.00,,SKC,0.00,VWS V13.01,2013-01-08 00:18:00,
2013-01-07 18:23:00,50.2,41.5,30.09,SE,124,0.0,0.0,72,0.00,,SKC,0.00,VWS V13.01,2013-01-08 00:23:00,
2013-01-07 18:28:00,50.2,41.5,30.09,SE,124,0.0,0.0,72,0.00,,SKC,0.00,VWS V13.01,2013-01-08 00:28:00,
2013-01-07 18:33:00,50.0,41.3,30.09,SE,124,0.0,0.0,72,0.00,,SKC,0.00,VWS V13.01,2013-01-08 00:33:00,
2013-01-07 18:38:00,50.0,41.3,30.09,SE,124,0.0,0.0,72,0.00,,SKC,0.00,VWS V13.01,2013-01-08 00:38:00,
2013-01-07 18:43:00,50.0,41.7,30.09,SE,124,0.0,0.0,73,0.00,,SKC,0.00,VWS V13.01,2013-01-08 00:43:00,
2013-01-07 18:48:00,50.2,41.8,30.09,SE,124,0.0,0.0,73,0.00,,SKC,0.00,VWS V13.01,2013-01-08 00:48:00,
2013-01-07 18:53:00,50.2,42.2,30.09,SE,124,0.0,0.0,74,0.00,,SKC,0.00,VWS V13.01,2013-01-08 00:53:00,
2013-01-07 18:58:00,50.0,42.0,30.09,SE,124,0.0,0.0,74,0.00,,SKC,0.00,VWS V13.01,2013-01-08 00:58:00,
2013-01-07 19:03:00,49.6,41.7,30.09,SE,124,0.0,0.0,74,0.00,,SKC,0.00,VWS V13.01,2013-01-08 01:03:00,
2013-01-07 19:08:00,49.3,41.3,30.09,SE,124,0.0,0.0,74,0.00,,SKC,0.00,VWS V13.01,2013-01-08 01:08:00,
2013-01-07 19:13:00,49.1,41.8,30.06,SE,124,0.0,0.0,76,0.00,,SKC,0.00,VWS V13.01,2013-01-08 01:13:00,
2013-01-07 19:18:00,48.7,42.2,30.06,SE,124,0.0,0.0,78,0.00,,SKC,0.00,VWS V13.01,2013-01-08 01:18:00,
2013-01-07 19:23:00,48.5,42.3,30.06,SE,124,0.0,0.0,79,0.00,,SKC,0.00,VWS V13.01,2013-01-08 01:23:00,
2013-01-07 19:28:00,48.4,42.2,30.09,SE,124,0.0,0.0,79,0.00,,SKC,0.00,VWS V13.01,2013-01-08 01:28:00,
2013-01-07 19:33:00,48.4,42.8,30.09,SE,124,0.0,0.0,81,0.00,,SKC,0.00,VWS V13.01,2013-01-08 01:33:00,
2013-01-07 19:38:00,48.4,42.8,30.09,SE,124,0.0,0.0,81,0.00,,SKC,0.00,VWS V13.01,2013-01-08 01:38:00,
2013-01-07 19:43:00,48.4,42.5,30.09,SE,124,0.0,0.0,80,0.00,,SKC,0.00,VWS V13.01,2013-01-08 01:43:00,
2013-01-07 19:48:00,48.5,43.0,30.09,SE,124,0.0,0.0,81,0.00,,SKC,0.00,VWS V13.01,2013-01-08 01:48:00,
2013-01-07 19:53:00,48.5,43.0,30.09,SE,124,0.0,0.0,81,0.00,,SKC,0.00,VWS V13.01,2013-01-08 01:53:00,
2013-01-07 19:58:00,48.7,43.2,30.09,SE,124,0.0,0.0,81,0.00,,SKC,0.00,VWS V13.01,2013-01-08 01:58:00,
2013-01-07 20:03:00,48.7,43.2,30.09,SE,124,0.0,0.0,81,0.00,,SKC,0.00,VWS V13.01,2013-01-08 02:03:00,
2013-01-07 20:08:00,48.9,43.7,30.09,SE,124,0.0,0.0,82,0.00,,SKC,0.00,VWS V13.01,2013-01-08 02:08:00,
2013-01-07 20:13:00,49.1,43.8,30.09,SE,124,0.0,0.0,82,0.00,,SKC,0.00,VWS V13.01,2013-01-08 02:13:00,
2013-01-07 20:18:00,49.1,43.8,30.09,SE,124,0.0,0.0,82,0.00,,SKC,0.00,VWS V13.01,2013-01-08 02:18:00,
2013-01-07 20:23:00,49.1,43.5,30.09,SE,124,0.0,0.0,81,0.00,,SKC,0.00,VWS V13.01,2013-01-08 02:23:00,
2013-01-07 20:28:00,49.3,43.7,30.09,SE,124,0.0,0.0,81,0.00,,SKC,0.00,VWS V13.01,2013-01-08 02:28:00,
2013-01-07 20:33:00,49.1,43.5,30.09,SE,124,0.0,0.0,81,0.00,,SKC,0.00,VWS V13.01,2013-01-08 02:33:00,
2013-01-07 20:38:00,49.1,43.5,30.09,SE,124,0.0,0.0,81,0.00,,SKC,0.00,VWS V13.01,2013-01-08 02:38:00,
2013-01-07 20:43:00,49.1,43.5,30.09,SE,124,0.0,0.0,81,0.00,,SKC,0.00,VWS V13.01,2013-01-08 02:43:00,
2013-01-07 20:48:00,49.1,43.5,30.09,SE,124,0.0,0.0,81,0.00,,SKC,0.00,VWS V13.01,2013-01-08 02:48:00,
2013-01-07 20:53:00,49.1,43.5,30.09,SE,124,0.0,0.0,81,0.00,,SKC,0.00,VWS V13.01,2013-01-08 02:53:00,
2013-01-07 20:58:00,49.1,43.2,30.09,SE,124,0.0,0.0,80,0.00,,SKC,0.00,VWS V13.01,2013-01-08 02:58:00,
2013-01-07 21:03:00,48.9,43.0,30.09,SE,124,0.0,0.0,80,0.00,,SKC,0.00,VWS V13.01,2013-01-08 03:03:00,
2013-01-07 21:08:00,48.7,43.2,30.09,SE,124,0.0,0.0,81,0.00,,SKC,0.00,VWS V13.01,2013-01-08 03:08:00,
2013-01-07 21:13:00,48.7,43.2,30.09,SE,124,0.0,0.0,81,0.00,,SKC,0.00,VWS V13.01,2013-01-08 03:13:00,
2013-01-07 21:18:00,48.5,42.7,30.09,SE,124,0.0,0.0,80,0.00,,SKC,0.00,VWS V13.01,2013-01-08 03:18:00,
2013-01-07 21:23:00,48.5,42.7,30.09,SE,124,0.0,0.0,80,0.00,,SKC,0.00,VWS V13.01,2013-01-08 03:23:00,
2013-01-07 21:28:00,48.4,42.5,30.06,SE,124,2.2,2.7,80,0.00,,SKC,0.00,VWS V13.01,2013-01-08 03:28:00,
2013-01-07 21:33:00,48.2,42.3,30.06,East,82,0.0,0.0,80,0.00,,SKC,0.00,VWS V13.01,2013-01-08 03:33:00,
2013-01-07 21:38:00,48.0,42.1,30.06,East,82,0.0,0.0,80,0.00,,SKC,0.00,VWS V13.01,2013-01-08 03:38:00,
2013-01-07 21:43:00,47.6,42.4,30.06,East,82,0.0,0.0,82,0.00,,SKC,0.00,VWS V13.01,2013-01-08 03:43:00,
2013-01-07 21:48:00,47.5,42.6,30.06,East,82,0.0,0.0,83,0.00,,SKC,0.00,VWS V13.01,2013-01-08 03:48:00,
2013-01-07 21:53:00,47.3,42.4,30.06,East,82,0.0,0.0,83,0.00,,SKC,0.00,VWS V13.01,2013-01-08 03:53:00,
2013-01-07 21:58:00,46.7,41.5,30.06,East,82,0.0,0.0,82,0.00,,SKC,0.00,VWS V13.01,2013-01-08 03:58:00,
2013-01-07 22:03:00,46.6,42.0,30.06,East,82,0.0,0.0,84,0.00,,SKC,0.00,VWS V13.01,2013-01-08 04:03:00,
2013-01-07 22:08:00,46.6,42.0,30.06,East,82,0.0,0.0,84,0.00,,SKC,0.00,VWS V13.01,2013-01-08 04:08:00,
2013-01-07 22:13:00,46.4,41.8,30.06,East,82,0.0,0.0,84,0.00,,SKC,0.00,VWS V13.01,2013-01-08 04:13:00,
2013-01-07 22:18:00,46.4,41.8,30.06,East,82,0.0,0.0,84,0.00,,SKC,0.00,VWS V13.01,2013-01-08 04:18:00,
2013-01-07 22:23:00,46.4,42.1,30.06,ENE,69,2.2,3.6,85,0.00,,SKC,0.00,VWS V13.01,2013-01-08 04:23:00,
2013-01-07 22:28:00,46.4,42.1,30.06,NE,35,2.2,2.2,85,0.00,,SKC,0.00,VWS V13.01,2013-01-08 04:28:00,
2013-01-07 22:33:00,46.4,42.1,30.06,ENE,60,2.7,2.7,85,0.00,,SKC,0.00,VWS V13.01,2013-01-08 04:33:00,
2013-01-07 22:38:00,46.2,42.0,30.06,NE,51,0.0,0.0,85,0.00,,SKC,0.00,VWS V13.01,2013-01-08 04:38:00,
2013-01-07 22:43:00,46.2,42.0,30.06,NE,46,3.6,3.6,85,0.00,,SKC,0.00,VWS V13.01,2013-01-08 04:43:00,
2013-01-07 22:48:00,46.2,41.6,30.06,ENE,69,2.7,2.7,84,0.00,,SKC,0.00,VWS V13.01,2013-01-08 04:48:00,
2013-01-07 22:53:00,46.2,41.3,30.06,NE,40,0.0,3.6,83,0.00,,SKC,0.00,VWS V13.01,2013-01-08 04:53:00,
2013-01-07 22:58:00,46.2,41.3,30.06,NE,44,3.1,3.1,83,0.00,,SKC,0.00,VWS V13.01,2013-01-08 04:58:00,
2013-01-07 23:00:00,46.2,41.3,30.06,NE,50,0.0,0.0,83,0.00,,SKC,0.00,VWS V13.01,2013-01-08 05:00:00,
2013-01-07 23:01:00,46.2,41.3,30.06,NE,56,4.5,4.5,83,0.00,,SKC,0.00,VWS V13.01,2013-01-08 05:01:00,
2013-01-07 23:02:00,46.2,41.3,30.06,NE,49,2.7,4.5,83,0.00,,SKC,0.00,VWS V13.01,2013-01-08 05:02:00,
2013-01-07 23:03:00,46.2,41.3,30.06,NE,52,3.1,3.1,83,0.00,,SKC,0.00,VWS V13.01,2013-01-08 05:03:00,
2013-01-07 23:08:00,46.2,40.7,30.06,ENE,59,2.7,3.1,81,0.00,,SKC,0.00,VWS V13.01,2013-01-08 05:08:00,
2013-01-07 23:13:00,46.2,40.4,30.06,ENE,72,3.1,3.1,80,0.00,,SKC,0.00,VWS V13.01,2013-01-08 05:13:00,
2013-01-07 23:18:00,46.0,39.9,30.06,ENE,57,2.2,3.6,79,0.00,,SKC,0.00,VWS V13.01,2013-01-08 05:18:00,
2013-01-07 23:23:00,46.0,39.6,30.06,ENE,61,2.7,3.6,78,0.00,,SKC,0.00,VWS V13.01,2013-01-08 05:23:00,
2013-01-07 23:28:00,46.0,40.2,30.06,NE,35,2.7,2.7,80,0.00,,SKC,0.00,VWS V13.01,2013-01-08 05:28:00,
2013-01-07 23:33:00,45.8,39.7,30.06,NE,42,2.2,2.7,79,0.00,,SKC,0.00,VWS V13.01,2013-01-08 05:33:00,
2013-01-07 23:38:00,45.7,38.9,30.06,NE,39,2.2,4.0,77,0.00,,SKC,0.00,VWS V13.01,2013-01-08 05:38:00,
2013-01-07 23:43:00,45.8,40.0,30.06,NE,53,0.0,0.0,80,0.00,,SKC,0.00,VWS V13.01,2013-01-08 05:43:00,
2013-01-07 23:48:00,45.7,39.8,30.06,NE,51,0.0,0.0,80,0.00,,SKC,0.00,VWS V13.01,2013-01-08 05:48:00,
2013-01-07 23:53:00,45.5,39.4,30.06,NE,51,0.0,0.0,79,0.00,,SKC,0.00,VWS V13.01,2013-01-08 05:53:00,
2013-01-07 23:58:00,45.5,39.4,30.03,NE,51,0.0,0.0,79,0.00,,SKC,0.00,VWS V13.01,2013-01-08 05:58:00,